ECMWFFLT1_con_mucape_000.txt.gz
CAPE
0 0 0 0 0 0 0 0 0 0 0 0 0 0 0 0 0 0 0 0 0 0 0 0 0 0 0 0 0 0 5 330 667 533 619 559 579 586 513 597 493 459 511 445 396 313 34 39 16 160 236 281 187 91 14 0 0 0 0 0 0 0 0
0 0 0 0 0 0 0 0 0 0 0 0 0 0 0 0 0 0 0 0 0 0 0 0 0 0 0 0 0 0 0 0 86 414 465 512 601 587 446 388 512 422 395 609 655 588 400 266 22 5 0 213 205 207 125 62 0 0 0 0 0 0 0
0 0 0 0 0 0 0 0 0 0 0 0 0 0 0 0 0 0 0 0 0 0 0 0 0 0 0 0 0 0 0 0 0 18 157 306 428 500 475 433 427 527 681 786 792 651 495 177 191 46 39 151 162 155 160 178 169 0 0 0 0 0 0
0 0 0 0 0 0 0 0 0 0 0 0 0 0 0 0 0 0 0 0 0 0 0 0 0 0 0 0 0 0 0 0 0 0 6 39 115 166 290 342 357 308 311 362 446 473 514 465 289 160 28 155 69 34 34 120 204 101 0 0 0 0 0
0 0 0 0 0 0 0 0 0 0 0 0 0 0 0 0 0 0 0 0 0 0 0 0 0 0 0 0 0 0 0 0 0 0 0 0 3 20 46 89 164 266 315 303 245 203 259 322 302 237 174 105 82 44 6 0 72 180 79 0 0 0 0
0 0 0 0 0 0 0 0 0 0 0 0 0 0 0 0 0 0 0 0 0 0 0 0 0 0 0 0 0 0 0 0 0 0 0 0 0 0 1 25 77 96 110 112 111 129 117 105 118 126 16 113 58 9 12 5 0 0 0 11 157 0 0
0 0 0 0 0 0 0 0 0 0 0 0 0 0 0 0 0 0 0 0 0 0 0 0 0 0 0 0 0 0 0 0 0 0 0 0 0 0 0 6 26 106 183 248 258 149 218 156 138 104 37 28 38 17 6 37 64 29 1 2 0 0 0
0 0 0 0 0 0 0 0 0 0 0 0 0 0 0 0 0 0 0 0 0 0 0 0 0 0 0 0 0 0 0 0 0 0 0 0 0 0 0 0 0 12 48 133 281 294 102 95 58 84 159 108 72 52 38 39 44 53 2 0 0 0 0
0 0 0 0 0 0 0 0 0 0 0 0 0 0 0 0 0 0 0 0 0 0 0 0 0 0 0 0 0 0 0 0 0 0 0 0 0 0 0 0 0 0 2 9 22 64 167 212 229 226 245 199 206 155 96 76 59 48 4 4 6 8 0
0 0 0 0 0 0 0 0 0 0 0 0 0 0 0 0 0 0 0 0 0 0 0 0 0 0 0 0 0 0 0 0 0 0 0 0 0 0 0 0 0 0 0 0 9 62 145 187 169 130 122 99 92 188 184 68 1 0 0 15 58 6 34
0 0 0 0 0 0 0 0 0 0 0 0 0 0 0 0 0 0 0 0 0 0 0 0 0 0 0 0 0 0 0 0 0 0 0 0 0 0 0 0 0 0 0 0 0 0 4 48 150 210 203 163 153 122 137 96 20 0 0 0 4 0 4
0 0 0 0 0 0 0 0 0 0 0 0 0 0 0 0 0 0 0 0 0 0 0 0 0 0 0 0 0 0 0 0 0 0 0 0 0 0 0 0 0 0 0 0 0 0 0 0 10 79 153 215 188 182 188 176 122 8 0 0 0 0 1
0 0 0 0 0 0 0 0 0 0 0 0 0 0 0 0 0 0 0 0 0 0 0 0 0 0 0 0 0 0 0 0 0 0 0 0 0 0 0 0 0 0 0 0 0 0 0 0 0 5 35 74 145 211 190 151 90 13 0 0 0 0 0
0 0 0 0 0 0 0 0 0 0 0 0 0 0 0 0 0 0 0 0 0 0 0 0 0 0 0 0 0 0 0 0 0 0 0 0 0 0 0 0 0 0 0 0 0 0 0 0 0 0 1 18 53 78 192 240 144 65 0 0 0 0 0
0 0 0 0 0 0 0 0 0 0 0 0 0 0 0 0 0 0 0 0 0 0 0 0 0 0 0 0 0 0 0 0 0 0 0 0 0 0 0 0 0 0 0 0 0 0 0 0 0 0 0 0 10 79 83 126 213 133 27 0 73 0 0
0 0 0 0 0 0 0 0 0 0 0 0 0 0 0 0 0 0 0 0 0 0 0 0 0 0 0 0 0 0 0 0 0 0 0 0 0 0 0 0 0 0 0 0 0 0 0 0 0 0 0 0 0 4 63 86 114 169 158 74 5 8 106
0 0 0 0 0 0 0 0 0 0 0 0 0 0 0 0 0 0 0 0 0 0 0 0 0 0 0 0 0 0 0 0 0 0 0 0 2 4 3 1 0 0 0 0 0 0 0 0 0 0 1 0 0 0 1 37 115 146 135 170 158 131 140
0 0 0 0 0 0 0 0 0 0 0 0 0 0 0 0 0 0 0 0 0 0 0 0 0 0 0 0 0 0 0 0 0 0 0 4 9 11 10 8 4 2 1 0 0 0 0 0 0 0 0 0 4 0 0 5 51 72 47 25 35 105 118
0 0 0 0 0 0 0 0 0 0 0 0 0 0 0 0 0 0 0 0 0 0 0 0 0 0 0 0 0 0 0 0 0 0 4 8 9 13 15 15 13 9 6 6 4 3 1 0 0 0 0 0 4 10 1 0 5 39 45 23 3 1 57
40 0 0 0 0 0 0 0 0 0 0 0 0 0 0 0 0 0 0 0 0 0 0 0 0 0 0 0 0 0 0 0 0 3 8 9 10 10 11 12 11 10 12 12 10 7 4 2 1 0 0 0 0 2 6 0 0 0 11 36 59 62 61
4 3 0 0 0 0 0 0 0 0 0 0 0 0 0 0 0 0 0 0 0 0 0 0 0 0 0 0 0 0 0 0 0 0 5 8 12 14 14 14 11 9 8 8 6 7 8 7 6 3 0 0 0 0 5 4 4 5 6 3 10 34 76
0 6 0 0 0 0 0 0 0 0 0 0 0 0 0 0 0 0 0 0 0 0 0 0 0 0 0 0 0 0 0 0 0 0 0 0 3 5 6 8 4 12 21 25 21 17 11 10 9 6 2 1 0 0 0 0 0 3 5 12 3 1 31
180 0 0 0 0 0 0 0 0 0 0 0 0 0 0 0 0 0 0 0 0 0 0 0 0 0 0 0 0 0 0 0 0 0 0 0 0 0 0 3 8 14 11 4 5 0 1 0 0 3 5 4 3 1 0 0 0 0 0 2 8 6 1
158 0 0 0 0 0 0 0 0 0 0 0 0 0 0 0 0 0 0 0 0 0 0 0 0 0 0 0 0 0 0 0 0 0 0 0 0 0 0 0 0 1 4 4 8 6 6 2 2 0 2 1 0 0 0 0 0 0 0 0 0 0 0
75 54 3 0 0 0 0 0 0 0 0 0 0 0 0 0 0 0 0 0 0 0 0 0 0 0 0 0 0 0 0 0 0 0 0 0 0 0 0 0 0 0 0 0 0 1 2 3 5 4 1 2 0 1 1 0 0 0 0 0 0 0 0
23 0 3 1 0 0 0 0 0 0 0 0 0 0 0 0 0 0 0 0 0 0 0 0 0 0 0 0 0 0 0 0 0 0 0 0 0 0 0 0 0 0 0 1 4 0 0 0 1 1 5 4 2 2 1 0 0 0 0 0 0 0 0
26 2 0 0 0 0 0 0 0 0 0 0 0 0 0 0 0 0 0 0 0 0 0 0 0 0 0 0 0 0 0 0 0 0 0 0 0 0 0 0 0 0 0 0 0 0 0 0 0 0 2 5 5 2 0 0 0 0 0 0 0 0 0
3 2 0 0 0 0 0 0 0 0 0 0 0 0 0 0 0 0 0 0 0 0 0 0 0 0 0 0 0 0 0 0 0 0 0 0 0 0 0 0 0 0 0 0 1 0 1 0 1 2 2 0 0 3 6 4 1 0 1 0 1 4 1
34 7 0 0 0 0 0 0 0 0 0 0 0 0 0 0 0 0 0 0 0 0 0 0 0 0 0 0 0 0 0 0 0 0 0 0 0 0 0 0 0 0 0 1 1 1 2 2 2 1 1 1 1 0 0 0 2 3 1 0 1 2 2
36 0 0 0 0 0 0 0 0 0 0 0 0 0 0 0 0 0 0 0 0 0 0 0 0 0 0 0 0 0 0 0 0 0 0 0 0 0 0 0 0 0 0 0 2 1 2 2 4 2 2 2 3 4 3 2 0 1 2 0 0 0 0
4 0 0 0 0 0 0 0 0 0 0 0 0 0 0 0 0 0 0 0 0 0 0 0 0 0 0 0 0 0 0 0 0 0 0 0 0 0 0 0 0 0 0 0 0 0 1 4 2 3 4 4 3 3 2 1 1 2 1 0 0 0 0
0 0 0 0 0 0 0 0 0 0 0 0 0 0 0 0 0 0 0 0 0 0 0 0 0 0 0 0 0 0 0 0 0 0 0 0 0 1 1 1 1 3 2 0 0 0 0 2 4 5 4 4 5 4 5 3 2 1 1 2 1 0 0
3 0 0 0 0 0 0 0 0 0 0 0 0 0 0 0 0 0 0 0 0 0 0 0 0 0 0 0 0 0 0 0 0 0 0 0 2 2 4 3 3 2 2 2 2 2 1 2 5 6 8 6 2 4 20 6 4 3 4 2 6 1 0
0 0 0 0 0 0 0 0 0 0 0 0 0 0 0 0 0 0 0 0 0 0 0 0 0 0 0 0 0 0 0 0 1 2 3 2 2 2 4 4 4 5 5 5 5 5 5 5 5 6 4 4 7 8 21 19 6 6 3 3 5 5 0
0 0 0 0 0 0 0 0 0 0 0 0 0 0 0 0 0 0 0 0 0 0 0 0 0 0 0 0 0 0 0 2 3 5 5 5 5 3 5 4 4 4 4 4 3 2 2 2 3 3 3 6 5 8 9 6 7 8 5 4 4 2 1
0 0 0 0 0 0 0 0 0 0 0 0 0 0 0 0 0 0 0 0 0 0 0 0 0 0 0 0 0 0 2 3 6 5 7 7 8 7 5 6 4 3 2 2 1 0 0 0 0 1 0 0 1 8 7 5 4 5 9 8 6 2 1
0 0 1 1 0 0 0 0 0 0 0 0 0 0 0 0 0 0 0 0 0 0 0 0 0 0 0 0 0 1 3 6 8 7 8 7 6 7 6 7 5 6 4 4 3 2 3 3 3 2 2 0 0 0 1 0 5 7 7 6 4 2 1

ECMWFFLT1_con_mucape_003.txt.gz
CAPE
0 0 0 0 0 0 0 0 0 0 0 0 0 0 0 0 0 0 0 0 0 0 0 0 0 0 0 0 0 0 0 0 5 37 50 112 113 251 222 186 32 149 172 222 216 112 2 2 9 2 148 206 210 162 38 0 0 0 0 0 0 0 0
0 0 0 0 0 0 0 0 0 0 0 0 0 0 0 0 0 0 0 0 0 0 0 0 0 0 0 0 0 0 0 0 0 0 6 4 29 54 76 162 208 190 158 168 152 38 15 66 172 237 3 0 0 51 192 247 283 260 157 140 83 0 0
0 0 0 0 0 0 0 0 0 0 0 0 0 0 0 0 0 0 0 0 0 0 0 0 0 0 0 0 0 0 0 0 0 0 0 0 0 0 20 43 42 68 55 131 224 293 272 165 77 93 131 104 36 0 0 103 193 259 265 234 197 43 0
0 0 0 0 0 0 0 0 0 0 0 0 0 0 0 0 0 0 0 0 0 0 0 0 0 0 0 0 0 0 0 0 0 0 0 0 0 0 0 1 4 8 20 34 70 111 73 50 42 94 169 140 95 10 19 0 44 122 176 190 208 244 224
0 0 0 0 0 0 0 0 0 0 0 0 0 0 0 0 0 0 0 0 0 0 0 0 0 0 0 0 0 0 0 0 0 0 0 0 0 0 0 0 0 5 19 22 45 58 72 80 65 60 100 76 54 0 5 77 0 0 76 135 197 236 260
0 0 0 0 0 0 0 0 0 0 0 0 0 0 0 0 0 0 0 0 0 0 0 0 0 0 0 0 0 0 0 0 0 0 0 0 0 0 0 0 0 0 2 15 40 80 120 102 64 45 34 52 42 1 0 0 0 0 0 0 0 8 8
0 0 0 0 0 0 0 0 0 0 0 0 0 0 0 0 0 0 0 0 0 0 0 0 0 0 0 0 0 0 0 0 0 0 0 0 0 0 0 0 0 0 0 1 5 14 40 60 92 99 44 24 36 21 5 0 0 4 0 0 0 0 0
0 0 0 0 0 0 0 0 0 0 0 0 0 0 0 0 0 0 0 0 0 0 0 0 0 0 0 0 0 0 0 0 0 0 0 0 0 0 0 0 0 0 0 0 0 4 10 15 28 60 54 34 23 28 16 19 29 0 0 0 1 6 0
0 0 0 0 0 0 0 0 0 0 0 0 0 0 0 0 0 0 0 0 0 0 0 0 0 0 0 0 0 0 0 0 0 0 0 0 0 0 0 0 0 0 0 0 0 0 0 1 3 8 36 32 40 15 7 0 0 0 0 0 1 0 0
0 0 0 0 0 0 0 0 0 0 0 0 0 0 0 0 0 0 0 0 0 0 0 0 0 0 0 0 0 0 0 0 0 0 0 0 0 0 0 0 0 0 0 0 0 0 0 0 0 3 11 15 34 32 36 15 0 0 0 0 0 0 0
0 0 0 0 0 0 0 0 0 0 0 0 0 0 0 0 0 0 0 0 0 0 0 0 0 0 0 0 0 0 0 0 0 0 0 0 0 0 0 0 0 0 0 0 0 0 0 0 0 0 0 5 15 33 80 68 18 1 0 0 0 0 0
0 0 0 0 0 0 0 0 0 0 0 0 0 0 0 0 0 0 0 0 0 0 0 0 0 0 0 0 0 0 0 0 0 0 0 0 0 0 0 0 0 0 0 0 0 0 0 0 0 0 0 1 5 13 10 37 52 10 5 1 0 0 0
22 0 0 0 0 0 0 0 0 0 0 0 0 0 0 0 0 0 0 0 0 0 0 0 0 0 0 0 0 0 0 0 0 0 0 0 0 0 0 0 0 0 0 0 0 0 0 0 0 0 0 0 0 5 18 20 24 11 0 13 1 0 0
140 9 0 0 0 0 0 0 0 0 0 0 0 0 0 0 0 0 0 0 0 0 0 0 0 0 0 0 0 0 0 0 0 0 0 0 0 0 0 0 0 0 0 0 0 0 0 0 0 0 0 0 0 0 5 10 5 6 0 2 4 0 0
176 104 0 0 0 0 0 0 0 0 0 0 0 0 0 0 0 0 0 0 0 0 0 0 0 0 0 0 0 0 0 0 0 0 0 0 0 0 0 0 0 0 0 0 0 0 0 0 0 0 0 0 0 0 3 12 13 13 4 0 1 0 7
218 164 96 0 0 0 0 0 0 0 0 0 0 0 0 0 0 0 0 0 0 0 0 0 0 0 0 0 0 0 0 0 0 0 0 0 0 0 0 0 0 0 0 0 0 0 0 0 0 0 0 0 0 0 1 9 16 12 8 1 1 4 0
266 224 164 91 0 0 0 0 0 0 0 0 0 0 0 0 0 0 0 0 0 0 0 0 0 0 0 0 0 0 0 0 0 0 0 0 0 0 0 0 0 0 0 0 0 0 0 0 0 0 0 0 0 0 0 1 8 17 19 11 0 19 7
310 279 238 172 91 0 0 0 0 0 0 0 0 0 0 0 0 0 0 0 0 0 0 0 0 0 0 0 0 0 0 0 0 0 0 0 0 0 1 2 2 2 2 1 1 1 2 2 1 0 0 0 0 0 0 0 6 27 18 8 2 4 15
400 351 291 232 163 32 0 0 0 0 0 0 0 0 0 0 0 0 0 0 0 0 0 0 0 0 0 0 0 0 0 0 0 0 0 0 0 0 2 4 7 7 5 4 2 2 3 3 3 1 0 0 0 0 0 0 2 5 6 2 3 0 0
412 432 371 309 222 0 0 0 0 0 0 0 0 0 0 0 0 0 0 0 0 0 0 0 0 0 0 0 0 0 0 0 0 0 0 0 0 0 0 1 6 10 13 13 10 6 6 7 7 6 8 5 4 4 3 0 0 0 2 2 1 2 1
435 424 410 350 249 0 0 0 0 0 0 0 0 0 0 0 0 0 0 0 0 0 0 0 0 0 0 0 0 0 0 0 0 0 0 0 0 0 0 0 0 0 0 1 4 9 11 9 8 10 11 12 11 9 6 3 2 1 1 3 2 0 0
466 418 413 418 102 0 0 0 0 0 0 0 0 0 0 0 0 0 0 0 0 0 0 0 0 0 0 0 0 0 0 0 0 0 0 0 0 0 0 0 0 0 0 2 0 0 0 0 0 0 0 0 0 0 0 1 2 3 2 3 1 0 0
433 412 437 422 0 0 0 0 0 0 0 0 0 0 0 0 0 0 0 0 0 0 0 0 0 0 0 0 0 0 0 0 0 0 0 0 0 0 0 0 0 0 0 0 0 0 0 0 0 0 0 0 0 0 0 0 0 0 1 1 1 1 0
12 80 493 314 0 0 0 0 0 0 0 0 0 0 0 0 0 0 0 0 0 0 0 0 0 0 0 0 0 0 0 0 0 0 0 0 0 0 0 0 0 0 0 0 0 0 0 0 0 0 0 0 0 0 0 0 0 1 1 3 3 4 3
181 308 390 3 3 0 0 0 0 0 0 0 0 0 0 0 0 0 0 0 0 0 0 0 0 0 0 0 0 0 0 0 0 0 0 0 0 0 0 0 0 0 0 0 0 0 0 0 0 0 0 0 0 0 0 0 0 1 2 3 3 4 6
444 356 16 10 0 1 0 0 0 0 0 0 0 0 0 0 0 0 0 0 0 0 0 0 0 0 0 0 0 0 0 0 0 0 0 0 0 0 0 0 0 0 0 0 0 0 0 0 0 0 0 0 0 0 0 0 0 0 0 0 0 0 0
457 226 105 33 15 5 0 0 0 0 0 0 0 0 0 0 0 0 0 0 0 0 0 0 0 0 0 0 0 0 0 0 0 0 0 0 0 0 0 0 0 0 0 0 0 0 0 0 0 0 0 0 0 0 0 0 0 0 0 0 1 0 0
406 131 83 67 22 1 0 1 0 0 0 0 0 0 0 0 0 0 0 0 0 0 0 0 0 0 0 0 0 0 0 0 0 0 0 0 0 0 0 0 0 0 0 0 0 0 0 0 0 0 0 0 0 0 0 0 0 0 0 2 1 4 2
467 285 97 18 18 0 1 2 0 0 0 0 0 0 0 0 0 0 0 0 0 0 0 0 0 0 0 0 0 0 0 0 0 0 0 0 0 0 0 0 0 0 0 0 0 0 0 0 0 0 0 0 0 0 0 0 0 0 0 0 0 2 6
355 229 200 137 73 0 0 0 0 0 0 0 0 0 0 0 0 0 0 0 0 0 0 0 0 0 0 0 0 0 0 0 0 0 0 0 0 0 0 0 0 0 0 0 0 0 0 0 0 0 0 0 0 0 0 0 0 0 0 0 0 0 0
298 240 246 180 23 0 0 0 0 0 0 0 0 0 0 0 0 0 0 0 0 0 0 0 0 0 0 0 0 0 0 0 0 0 0 0 0 0 0 0 0 0 0 0 0 0 0 0 0 0 0 0 0 0 0 0 0 0 1 0 0 0 0
213 34 128 34 0 0 0 0 0 0 0 0 0 0 0 0 0 0 0 0 0 0 0 0 0 0 0 0 0 0 0 0 0 0 0 0 0 0 0 0 3 3 1 0 0 0 0 0 0 0 0 1 2 2 1 2 0 1 3 5 5 6 2
73 92 134 78 18 0 0 0 0 0 0 0 0 0 0 0 0 0 0 0 0 0 0 0 0 0 0 0 0 0 0 0 0 0 0 0 0 2 2 3 2 2 1 0 0 0 0 2 1 2 2 3 3 4 4 3 2 3 1 13 24 28 4
37 63 33 2 0 0 0 0 0 0 0 0 0 0 0 0 0 0 0 0 0 0 0 0 0 0 0 0 0 0 0 0 0 0 0 0 2 4 5 5 4 6 6 6 6 4 5 5 6 4 5 5 6 3 2 2 1 1 6 1 4 3 19
58 70 43 31 0 0 0 0 0 0 0 0 0 0 0 0 0 0 0 0 0 0 0 0 0 0 0 0 0 0 0 0 0 0 0 2 3 4 4 2 4 3 6 6 10 11 11 12 12 8 7 7 5 5 5 3 4 4 5 2 2 8 18
108 41 21 5 0 0 0 0 0 0 0 0 0 0 0 0 0 0 0 0 0 0 0 0 0 0 0 0 0 0 0 0 0 0 0 2 3 2 4 4 4 4 5 8 11 13 15 15 15 14 13 10 9 6 4 2 1 3 3 5 4 7 7
52 23 4 0 0 0 0 0 0 0 0 0 0 0 0 0 0 0 0 0 0 0 0 0 0 0 0 0 0 0 0 0 0 0 0 1 1 3 4 5 6 9 10 10 10 9 8 8 8 7 7 8 8 6 2 1 1 0 3 4 5 2 6

ECMWFFLT1_con_mucape_006.txt.gz
CAPE
0 0 0 0 0 0 0 0 0 0 0 0 0 0 0 0 0 0 0 0 0 0 0 0 0 0 0 0 0 0 0 0 1 2 3 4 14 11 62 198 77 63 92 123 151 125 114 139 98 47 5 0 0 0 0 0 0 0 0 0 0 0 0
0 0 0 0 0 0 0 0 0 0 0 0 0 0 0 0 0 0 0 0 0 0 0 0 0 0 0 0 0 0 0 0 0 0 2 1 2 2 1 5 108 122 69 134 87 50 62 83 66 53 80 17 10 43 0 0 0 0 0 0 0 0 0
0 0 0 0 0 0 0 0 0 0 0 0 0 0 0 0 0 0 0 0 0 0 0 0 0 0 0 0 0 0 0 0 0 0 0 0 1 1 2 2 2 0 0 39 88 48 111 94 65 95 69 38 34 33 13 25 3 0 0 0 0 0 0
0 0 0 0 0 0 0 0 0 0 0 0 0 0 0 0 0 0 0 0 0 0 0 0 0 0 0 0 0 0 0 0 0 0 0 0 0 0 0 2 1 2 3 5 5 7 12 11 14 18 31 38 33 35 51 12 1 0 0 0 0 0 0
0 0 0 0 0 0 0 0 0 0 0 0 0 0 0 0 0 0 0 0 0 0 0 0 0 0 0 0 0 0 0 0 0 0 0 0 0 0 0 0 1 4 4 3 4 7 6 12 11 5 6 12 15 24 27 12 1 3 3 0 0 0 0
0 0 0 0 0 0 0 0 0 0 0 0 0 0 0 0 0 0 0 0 0 0 0 0 0 0 0 0 0 0 0 0 0 0 0 0 0 0 0 0 0 0 1 3 5 3 3 8 24 9 4 23 15 3 0 1 13 4 5 17 7 0 0
0 0 0 0 0 0 0 0 0 0 0 0 0 0 0 0 0 0 0 0 0 0 0 0 0 0 0 0 0 0 0 0 0 0 0 0 0 0 0 0 0 0 0 0 2 2 3 4 3 2 2 8 14 5 3 1 0 0 16 0 0 0 0
0 0 0 0 0 0 0 0 0 0 0 0 0 0 0 0 0 0 0 0 0 0 0 0 0 0 0 0 0 0 0 0 0 0 0 0 0 0 0 0 0 0 0 0 0 0 0 2 4 7 4 3 6 5 4 2 1 0 0 2 3 4 2
0 0 0 0 0 0 0 0 0 0 0 0 0 0 0 0 0 0 0 0 0 0 0 0 0 0 0 0 0 0 0 0 0 0 0 0 0 0 0 0 0 0 0 0 0 0 0 0 2 3 7 6 3 3 1 0 0 0 0 0 0 8 25
0 0 0 0 0 0 0 0 0 0 0 0 0 0 0 0 0 0 0 0 0 0 0 0 0 0 0 0 0 0 0 0 0 0 0 0 0 0 0 0 0 0 0 0 0 0 0 0 0 0 1 5 4 4 7 6 0 0 0 1 0 0 0
0 0 0 0 0 0 0 0 0 0 0 0 0 0 0 0 0 0 0 0 0 0 0 0 0 0 0 0 0 0 0 0 0 0 0 0 0 0 0 0 0 0 0 0 0 0 0 0 0 0 0 1 4 4 4 4 3 3 1 1 4 1 0
0 0 0 0 0 0 0 0 0 0 0 0 0 0 0 0 0 0 0 0 0 0 0 0 0 0 0 0 0 0 0 0 0 0 0 0 0 0 0 0 0 0 0 0 0 0 0 0 0 0 0 1 0 6 6 6 2 0 10 4 4 5 5
0 0 0 0 0 0 0 0 0 0 0 0 0 0 0 0 0 0 0 0 0 0 0 0 0 0 0 0 0 0 0 0 0 0 0 0 0 0 0 0 0 0 0 0 0 0 0 0 0 0 0 0 0 2 10 9 6 1 0 0 0 1 14
68 28 0 0 0 0 0 0 0 0 0 0 0 0 0 0 0 0 0 0 0 0 0 0 0 0 0 0 0 0 0 0 0 0 0 0 0 0 0 0 0 0 0 0 0 0 0 0 0 0 0 0 0 1 5 9 8 3 0 0 5 2 8
0 0 0 0 0 0 0 0 0 0 0 0 0 0 0 0 0 0 0 0 0 0 0 0 0 0 0 0 0 0 0 0 0 0 0 0 0 0 0 0 0 0 0 0 0 0 0 0 0 0 0 0 1 4 16 5 7 10 2 0 0 4 7
66 179 136 0 0 0 0 0 0 0 0 0 0 0 0 0 0 0 0 0 0 0 0 0 0 0 0 0 0 0 0 0 0 0 0 0 0 0 0 0 0 0 0 0 0 0 0 0 1 1 3 5 6 5 4 8 7 5 4 1 1 2 15
234 214 42 177 167 0 0 0 0 0 0 0 0 0 0 0 0 0 0 0 0 0 0 0 0 0 0 0 0 0 0 0 0 0 0 0 0 0 0 0 0 0 0 0 0 0 0 0 1 4 6 6 7 4 4 4 12 8 7 7 0 8 8
237 176 225 0 0 128 58 0 0 0 0 0 0 0 0 0 0 0 0 0 0 0 0 0 0 0 0 0 0 0 0 0 0 0 0 0 0 0 0 0 0 0 0 0 0 0 0 0 0 2 3 3 4 6 7 12 15 20 19 6 1 0 4
392 318 262 176 0 0 0 0 0 0 0 0 0 0 0 0 0 0 0 0 0 0 0 0 0 0 0 0 0 0 0 0 0 0 0 0 0 0 0 0 0 0 0 0 0 0 0 0 0 2 6 4 5 8 12 15 27 21 19 10 6 2 1
568 456 332 286 138 2 232 189 55 0 0 0 0 0 0 0 0 0 0 0 0 0 0 0 0 0 0 0 0 0 0 0 0 0 0 0 0 0 0 0 0 0 0 0 0 0 0 0 0 0 0 1 1 4 8 10 12 16 17 12 6 3 4
730 632 496 366 77 38 0 246 185 62 0 0 0 0 0 0 0 0 0 0 0 0 0 0 0 0 0 0 0 0 0 0 0 0 0 0 0 0 0 0 0 0 0 0 0 0 0 0 0 0 0 0 0 0 0 0 2 3 8 10 8 3 1
731 710 623 518 392 154 97 134 251 198 0 0 0 0 0 0 0 0 0 0 0 0 0 0 0 0 0 0 0 0 0 0 0 0 0 0 0 0 0 0 0 0 0 0 0 0 0 0 0 0 0 0 0 0 0 0 0 1 4 8 8 9 4
695 723 715 619 574 318 79 14 124 262 0 0 0 0 0 0 0 0 0 0 0 0 0 0 0 0 0 0 0 0 0 0 0 0 0 0 0 0 0 0 0 0 0 0 0 0 0 0 0 0 0 0 0 0 0 0 0 0 0 2 4 7 8
605 645 664 674 625 586 438 100 1 0 0 0 0 0 0 0 0 0 0 0 0 0 0 0 0 0 0 0 0 0 0 0 0 0 0 0 0 0 0 0 0 0 0 0 0 0 0 0 0 0 0 0 0 0 0 0 0 0 0 0 0 4 6
574 625 657 708 693 621 260 80 75 10 7 3 0 0 0 0 0 0 0 0 0 0 0 0 0 0 0 0 0 0 0 0 0 0 0 0 0 0 0 0 0 0 0 0 0 0 0 0 0 0 0 0 0 0 0 0 0 0 0 0 0 0 1
522 595 653 701 659 514 415 313 153 44 66 0 0 0 0 0 0 0 0 0 0 0 0 0 0 0 0 0 0 0 0 0 0 0 0 0 0 0 0 0 0 0 0 0 0 0 0 0 0 0 0 0 0 0 0 0 0 0 0 0 0 0 0
442 538 604 631 584 423 345 93 140 108 91 32 0 0 0 0 0 0 0 0 0 0 0 0 0 0 0 0 0 0 0 0 0 0 0 0 0 0 0 0 0 0 0 0 0 0 0 0 0 0 0 0 0 0 0 0 0 0 0 0 0 0 0
396 466 539 580 546 434 254 0 94 85 71 19 18 18 0 0 0 0 0 0 0 0 0 0 0 0 0 0 0 0 0 0 0 0 0 0 0 0 0 0 0 0 0 0 0 0 0 0 0 0 0 0 0 0 0 0 0 0 0 0 0 0 0
358 415 475 504 535 469 328 187 14 0 30 43 53 20 0 0 0 0 0 0 0 0 0 0 0 0 0 0 0 0 0 0 0 0 0 0 0 0 0 0 0 0 0 0 0 0 0 0 1 0 1 0 0 0 0 0 0 0 0 0 0 0 0
322 383 453 513 546 477 219 51 20 13 26 11 6 4 4 2 0 0 0 0 0 0 0 0 0 0 0 0 0 0 0 0 0 0 0 0 0 0 0 0 0 0 0 0 0 0 0 0 1 0 0 1 1 0 0 0 0 0 0 0 0 0 0
269 331 384 472 451 120 142 35 10 20 6 2 3 2 3 1 0 0 0 0 0 0 0 0 0 0 0 0 0 0 0 0 0 0 0 0 0 0 0 0 0 0 0 0 0 0 0 2 1 2 0 0 0 1 0 1 1 1 1 1 1 0 0
207 275 342 316 51 0 3 29 16 42 4 2 1 0 1 2 0 0 0 0 0 0 0 0 0 0 0 0 0 0 0 0 0 0 0 0 0 0 0 0 0 0 0 0 0 0 1 3 2 2 1 1 1 1 1 2 1 1 1 1 1 1 1
140 206 285 351 217 15 0 7 51 31 8 3 1 0 0 0 0 0 0 0 0 0 0 0 0 0 0 0 0 0 0 0 0 0 0 0 0 0 0 0 0 0 0 0 0 1 3 5 6 3 3 2 2 2 1 1 1 2 1 2 3 4 3
105 160 187 244 156 51 32 31 37 14 3 1 0 0 0 0 1 8 0 0 0 0 0 0 0 0 0 0 0 0 0 0 0 0 0 0 0 0 0 0 0 0 0 0 2 3 4 6 7 8 4 3 1 2 5 3 2 4 2 4 2 1 2
92 122 133 138 137 64 57 49 22 0 0 0 0 0 0 2 0 0 0 0 0 0 0 0 0 0 0 0 0 0 0 0 0 0 0 0 0 0 0 0 0 0 0 0 3 6 6 7 8 7 4 5 8 8 10 5 4 4 4 2 4 3 3
111 106 96 97 98 67 108 50 4 11 3 4 4 0 0 0 0 0 0 0 0 0 0 0 0 0 0 0 0 0 0 0 0 0 0 0 0 0 0 0 1 1 2 4 6 6 6 4 4 3 2 2 3 3 5 7 4 4 3 3 3 3 2
146 136 59 38 15 40 27 9 0 3 3 2 3 1 0 0 0 0 0 0 0 0 0 0 0 0 0 0 0 0 0 0 0 0 0 0 0 0 1 0 2 4 6 6 7 6 6 6 5 3 1 0 1 0 0 0 0 1 1 1 3 2 2

ECMWFFLT1_con_mucape_009.txt.gz
CAPE
8 1 1 8 10 0 0 0 0 0 0 0 0 0 0 0 0 0 0 0 0 0 0 0 0 0 0 0 0 0 0 0 2 4 4 6 45 45 95 191 110 119 181 248 258 247 313 415 398 374 499 422 432 429 337 377 354 379 396 492 333 394 589
0 0 0 0 0 0 0 0 0 0 0 0 0 0 0 0 0 0 0 0 0 0 0 0 0 0 0 0 0 0 0 0 0 1 1 1 3 3 3 4 36 32 111 154 193 191 154 179 204 281 541 316 399 457 511 371 319 380 394 377 324 249 308
0 0 0 1 0 0 0 0 0 0 0 0 0 0 0 0 0 0 0 0 0 0 0 0 0 0 0 0 0 0 0 0 0 0 0 1 1 2 2 3 3 3 33 55 53 47 89 137 98 122 114 15 115 250 259 331 280 256 242 298 436 322 284
0 0 0 0 0 0 0 0 0 0 0 0 0 0 0 0 0 0 0 0 0 0 0 0 0 0 0 0 0 0 0 0 0 0 0 0 0 1 1 2 4 3 2 2 8 10 23 34 37 46 62 43 17 43 139 174 168 89 72 202 325 347 369
6 0 0 2 0 0 1 0 0 0 0 0 0 0 0 0 0 0 0 0 0 0 0 0 0 0 0 0 0 0 0 0 0 0 0 0 0 0 0 0 1 2 1 2 3 5 10 7 8 6 11 19 36 42 51 90 101 92 109 112 164 261 369
12 2 0 11 0 0 1 1 0 1 0 0 0 0 0 0 0 0 0 0 0 0 0 0 0 0 0 0 0 0 0 0 0 0 0 0 0 0 0 0 0 0 0 0 0 0 0 3 8 10 2 7 6 4 4 36 70 44 51 62 151 193 167
16 9 2 0 0 0 0 4 4 8 4 4 0 0 0 0 0 0 0 0 0 0 0 0 0 0 0 0 0 0 0 0 0 0 0 0 0 0 0 0 0 0 0 0 0 0 0 0 1 3 5 2 3 0 0 0 12 16 109 114 73 30 23
23 6 5 1 3 0 0 14 20 18 10 8 0 0 0 0 0 0 0 0 0 0 0 0 0 0 0 0 0 0 0 0 0 0 0 0 0 0 0 0 0 0 0 0 0 0 0 0 0 2 4 1 0 0 0 0 0 0 0 0 12 4 0
13 10 3 0 0 2 0 12 24 27 26 11 4 0 0 0 0 0 0 0 0 0 0 0 0 0 0 0 0 0 0 0 0 0 0 0 0 0 0 0 0 0 0 0 0 0 0 0 0 1 3 5 0 0 0 0 0 0 0 0 0 2 13
19 18 10 2 0 0 0 1 19 32 55 20 2 0 0 0 0 0 0 0 0 0 0 0 0 0 0 0 0 0 0 0 0 0 0 0 0 0 0 0 0 0 0 0 0 0 0 0 0 0 1 2 6 6 0 0 0 0 0 0 0 5 2
6 8 7 3 1 0 0 0 0 2 0 3 2 0 0 0 0 0 0 0 0 0 0 0 0 0 0 0 0 0 0 0 0 0 0 0 0 0 0 0 0 0 0 0 0 0 0 0 0 0 0 0 2 4 4 2 0 0 0 0 0 0 1
0 0 0 0 0 0 0 0 0 0 1 0 0 0 0 0 0 0 0 0 0 0 0 0 0 0 0 0 0 0 0 0 0 0 0 0 0 0 0 0 0 0 0 0 0 0 0 0 0 0 0 0 0 3 2 5 0 0 0 0 0 0 0
0 0 0 0 0 0 0 0 0 0 0 0 0 0 0 0 0 0 0 0 0 0 0 0 0 0 0 0 0 0 0 0 0 0 0 0 0 0 0 0 0 0 0 0 0 0 0 0 0 0 0 0 0 1 3 0 0 0 0 0 0 0 0
0 0 0 0 0 0 0 0 0 0 0 0 0 0 0 0 0 0 0 0 0 0 0 0 0 0 0 0 0 0 0 0 0 0 0 0 0 0 0 0 0 0 0 0 0 0 0 0 0 0 0 0 0 0 0 1 0 0 0 0 0 0 0
17 0 1 2 0 0 0 0 0 0 0 0 0 0 0 0 0 0 0 0 0 0 0 0 0 0 0 0 0 0 0 0 0 0 0 0 0 0 0 0 0 0 0 0 0 0 0 0 0 0 0 0 0 0 2 0 0 0 0 0 0 0 0
220 68 17 10 0 0 0 0 0 0 0 0 0 0 0 0 0 0 0 0 0 0 0 0 0 0 0 0 0 0 0 0 0 0 0 0 0 0 0 0 0 0 0 0 0 0 0 0 0 0 0 0 0 0 0 0 0 0 0 0 0 0 0
307 256 211 195 136 0 0 0 0 0 0 0 0 0 0 0 0 0 0 0 0 0 0 0 0 0 0 0 0 0 0 0 0 0 0 0 0 0 0 0 0 0 0 0 0 0 0 0 0 0 0 0 0 0 1 3 3 1 0 0 0 0 0
417 376 297 222 60 6 0 0 0 0 0 0 0 0 0 0 0 0 0 0 0 0 0 0 0 0 0 0 0 0 0 0 0 0 0 0 0 0 0 0 0 0 0 0 0 0 0 0 0 0 0 0 0 0 0 0 2 2 2 1 0 0 0
568 499 405 288 222 204 168 0 0 0 0 0 0 0 0 0 0 0 0 0 0 0 0 0 0 0 0 0 0 0 0 0 0 0 0 0 0 0 0 0 0 0 0 0 0 0 0 0 0 0 0 0 0 0 0 0 0 0 0 0 0 0 0
589 622 594 463 373 287 255 246 92 0 0 0 0 0 0 0 0 0 0 0 0 0 0 0 0 0 0 0 0 0 0 0 0 0 0 0 0 0 0 0 0 0 0 0 0 0 0 0 0 0 0 0 0 0 0 0 0 0 0 0 0 0 0
556 602 653 652 610 556 498 418 327 172 6 0 9 26 1 0 0 0 0 0 0 0 0 0 0 0 0 0 0 0 0 0 0 0 0 0 0 0 0 0 0 0 0 0 0 0 0 0 0 0 0 0 0 0 0 0 0 0 0 0 0 0 0
438 483 567 587 665 684 657 618 562 460 267 211 185 73 55 5 19 7 0 0 0 0 0 0 0 0 0 0 0 0 0 0 0 0 0 0 0 0 0 0 0 0 0 0 0 0 0 0 0 0 0 0 0 0 0 0 0 0 0 0 0 0 0
309 392 472 519 551 566 567 582 581 526 473 322 219 177 84 146 47 64 42 8 0 0 0 0 0 0 0 0 0 0 0 0 0 0 0 0 0 0 0 0 0 0 0 0 0 0 0 0 0 0 0 0 0 0 0 0 0 0 0 0 0 0 0
264 221 308 423 490 514 548 548 530 530 494 423 354 257 156 16 3 15 58 52 19 0 0 0 0 0 0 0 0 0 0 0 0 0 0 0 0 0 0 0 0 0 0 0 0 0 0 0 0 0 0 0 0 0 0 0 0 0 0 0 0 0 0
162 168 127 259 375 456 476 502 522 530 516 512 412 322 265 213 112 67 57 61 31 0 0 0 0 0 0 0 0 0 0 0 0 0 0 0 0 0 0 0 0 0 0 0 0 0 0 0 0 0 0 0 0 0 0 0 0 0 0 0 0 0 0
136 158 130 42 254 323 400 424 470 488 506 468 397 295 220 22 25 49 66 64 78 17 0 0 0 0 0 0 0 0 0 0 0 0 0 0 0 0 0 0 0 0 0 0 0 0 0 0 0 0 0 0 0 0 0 0 0 0 0 0 0 0 0
130 140 104 23 0 229 260 324 391 425 446 411 329 248 198 0 0 16 54 66 77 37 3 0 0 0 0 0 0 0 0 0 0 0 0 0 0 0 0 0 0 0 0 0 0 0 0 0 0 0 0 0 0 0 0 0 0 0 0 1 2 0 0
57 83 61 8 0 24 29 233 287 347 374 325 234 188 0 0 0 24 40 66 32 10 18 6 0 0 0 0 0 0 0 0 0 0 0 0 0 0 0 0 0 0 0 0 0 0 0 0 0 0 0 0 0 0 0 0 0 0 3 3 4 2 1
12 36 35 4 48 34 15 137 214 270 326 338 264 183 146 71 19 11 23 6 4 14 19 9 2 0 0 0 0 0 0 0 0 0 0 0 0 0 0 0 0 0 0 0 0 0 0 0 0 0 0 0 0 1 3 1 0 0 0 1 1 3 2
0 4 5 0 20 79 99 145 190 215 267 283 294 204 147 91 0 8 1 0 0 4 19 10 11 5 2 0 0 0 0 0 0 0 0 0 0 0 0 0 0 0 0 0 0 0 0 0 0 0 0 0 0 0 0 0 0 0 0 0 0 0 0
1 2 4 0 0 59 97 122 216 232 273 248 169 199 134 10 7 8 10 3 3 3 9 6 1 0 0 0 0 0 0 0 0 0 0 0 0 0 0 0 0 0 0 0 0 0 0 0 0 0 0 1 0 0 0 0 0 0 0 0 0 0 0
1 2 3 0 1 54 119 170 67 0 256 207 5 55 10 0 1 6 6 7 5 7 8 5 1 1 0 0 0 0 0 0 0 0 0 0 0 0 0 0 0 0 0 0 0 0 0 0 1 2 2 2 1 1 1 1 1 2 2 4 4 3 1
2 3 2 0 36 110 165 183 233 262 226 55 24 11 0 1 7 3 5 6 6 6 3 0 0 0 0 0 0 0 0 0 0 0 0 0 0 0 0 0 0 0 0 0 0 0 0 0 0 3 3 2 3 0 1 2 2 0 4 0 2 2 0
4 3 3 3 42 78 190 238 235 200 97 31 15 10 4 4 3 6 6 7 3 2 0 0 0 0 0 0 0 0 0 0 0 0 0 0 0 0 0 0 0 0 0 0 0 0 1 2 2 3 1 2 3 1 0 0 2 2 0 0 0 2 1
5 4 1 6 65 128 156 181 184 99 0 4 10 9 5 1 6 12 5 0 0 0 0 0 0 0 0 0 0 0 0 0 0 0 0 0 0 0 0 0 0 0 0 0 1 1 0 1 1 2 0 0 0 0 2 0 2 0 0 0 0 0 0
12 3 14 43 90 151 162 210 118 3 9 2 12 8 5 5 7 0 0 0 0 0 0 0 0 0 0 0 0 0 0 0 0 0 0 0 0 0 0 0 1 0 0 0 0 0 0 0 2 3 0 0 2 2 2 4 0 1 1 2 1 0 0
21 24 41 60 83 95 138 122 71 29 7 8 10 2 2 7 2 0 0 0 0 0 0 0 0 0 0 0 0 0 0 0 0 0 0 0 0 0 0 1 0 0 0 0 0 0 0 0 1 0 0 0 1 1 1 1 0 0 1 1 1 1 0

ECMWFFLT1_con_mucape_015.txt.gz
CAPE
2 95 29 54 23 26 22 25 18 43 46 36 30 1 9 6 7 2 0 0 0 0 3 10 34 21 22 12 3 9 16 17 412 318 429 452 671 480 550 657 513 504 425 755 750 583 601 287 514 706 793 628 621 734 639 556 347 318 564 340 497 558 552
25 16 22 13 24 58 40 60 33 46 80 29 1 0 0 0 1 5 2 0 0 0 0 0 0 2 5 6 5 4 2 0 6 8 54 120 182 189 149 342 178 265 290 495 532 807 402 190 302 339 495 956 600 913 1296 814 678 750 443 355 227 476 293
3 0 7 14 58 63 102 111 63 35 5 0 0 0 0 0 0 0 0 0 0 0 0 0 0 0 0 0 3 12 7 0 0 1 0 0 0 0 0 40 31 1 5 130 232 360 98 144 121 110 404 965 1059 1326 1297 1208 1461 1243 880 628 396 375 513
4 0 17 14 21 106 70 52 35 20 0 0 0 0 0 0 0 0 0 0 0 0 0 0 0 0 0 0 0 0 0 0 0 0 0 0 0 0 0 0 0 0 2 5 9 9 9 1 0 6 12 28 102 414 1155 1320 997 782 976 988 533 520 662
17 4 75 13 13 131 116 50 50 12 0 0 0 0 0 0 0 0 0 0 0 0 0 0 0 0 0 0 0 0 0 0 0 0 0 0 0 0 0 0 0 0 0 0 0 0 0 0 0 0 0 0 0 0 3 482 224 153 75 64 118 206 322
41 9 167 68 29 42 55 41 38 41 4 0 0 0 0 0 0 0 0 0 0 0 0 0 0 0 0 0 0 0 0 0 0 0 0 0 0 0 0 0 0 0 0 0 0 0 0 0 0 0 0 0 0 0 0 0 0 0 0 0 4 3 79
107 44 94 74 72 25 34 92 31 22 15 0 0 0 0 0 0 0 0 0 0 0 0 0 0 0 0 0 0 0 0 0 0 0 0 0 0 0 0 0 0 0 0 0 0 0 0 0 0 0 0 0 0 0 0 0 0 0 0 0 0 0 0
173 101 44 48 69 26 78 70 18 26 50 39 0 0 0 0 0 0 0 0 0 0 0 0 0 0 0 0 0 0 0 0 0 0 0 0 0 0 0 0 0 0 0 0 0 0 0 0 0 0 0 0 0 0 0 0 0 0 0 0 0 0 0
248 114 35 22 127 61 93 112 28 48 74 96 32 1 0 0 1 0 0 0 0 0 0 0 0 0 0 0 0 0 0 0 0 0 0 0 0 0 0 0 0 0 0 0 0 0 0 0 0 0 0 0 0 0 0 0 0 0 0 0 0 0 0
618 352 134 73 282 153 118 143 44 78 113 119 124 31 0 14 7 0 0 0 0 0 0 0 0 0 0 0 0 0 0 0 0 0 0 0 0 0 0 0 0 0 0 0 0 0 0 0 0 0 0 0 0 0 0 0 0 0 0 0 0 0 0
825 699 454 250 285 365 174 108 77 95 88 171 199 160 7 54 49 0 0 0 0 0 0 0 0 0 0 0 0 0 0 0 0 0 0 0 0 0 0 0 0 0 0 0 0 0 0 0 0 0 0 0 0 0 0 0 0 0 0 0 0 0 0
972 826 702 567 545 543 348 129 89 147 128 184 258 283 64 86 87 17 16 2 0 0 0 0 0 0 0 0 0 0 0 0 0 0 0 0 0 0 0 0 0 0 0 0 0 0 0 0 0 0 0 0 0 0 0 0 0 0 0 0 0 0 0
791 663 641 645 570 677 281 258 123 166 250 239 298 399 112 110 103 48 37 19 9 0 0 0 0 0 0 0 0 0 0 0 0 0 0 0 0 0 0 0 0 0 0 0 0 0 0 0 0 0 0 0 0 0 0 0 0 0 0 0 0 0 0
805 702 579 666 881 682 677 254 9 204 268 393 333 454 172 134 98 87 43 28 19 8 0 0 0 0 0 0 0 0 0 0 0 0 0 0 0 0 0 0 0 0 0 0 0 0 0 0 0 0 0 0 0 0 0 0 0 0 0 0 0 0 0
1065 1041 739 751 968 999 701 383 252 249 315 457 310 420 286 173 138 130 59 48 29 9 0 0 0 0 0 0 0 0 0 0 0 0 0 0 0 0 0 0 0 0 0 0 0 0 0 0 0 0 0 0 0 0 0 0 0 0 0 0 0 0 0
696 742 844 658 756 892 608 752 659 327 188 210 370 392 344 229 190 173 115 98 51 24 6 0 0 0 0 0 0 0 0 0 0 0 0 0 0 0 0 0 0 0 0 0 0 0 0 0 0 0 0 0 0 0 0 0 0 0 0 0 0 0 0
800 684 622 479 451 839 1011 759 632 605 410 262 448 38 144 272 231 222 194 166 114 72 45 9 1 0 0 0 0 0 0 0 0 0 0 0 0 0 0 0 0 0 0 0 0 0 0 0 0 0 0 0 0 0 0 0 0 0 0 0 0 0 0
875 1168 1026 1019 1121 1015 401 582 641 422 332 337 348 298 30 177 281 272 300 248 208 154 104 42 14 1 0 0 0 0 0 0 0 0 0 0 0 0 0 0 0 0 0 0 0 0 0 0 0 0 0 0 0 0 0 0 0 0 0 0 0 0 0
960 1073 1021 1073 1182 1136 1117 955 668 705 498 446 283 301 196 72 123 319 323 297 274 224 167 96 46 10 0 0 0 0 0 0 0 0 0 0 0 0 0 0 0 0 0 0 0 0 0 0 0 0 0 0 0 0 0 0 0 0 0 0 0 0 0
975 987 964 1120 1239 1120 844 912 802 879 583 490 286 207 100 466 369 232 331 316 296 266 206 132 52 27 1 0 0 0 0 0 0 0 0 0 0 0 0 0 0 0 0 0 0 0 0 0 0 0 0 0 0 0 0 0 0 0 0 0 0 0 0
0 9 350 802 1116 1018 991 1156 1002 655 532 788 755 384 300 223 596 423 129 262 314 170 142 148 99 19 100 38 0 0 0 10 14 14 4 2 0 0 0 0 0 0 0 0 0 0 0 0 0 0 0 0 0 0 0 0 0 0 0 0 0 0 0
0 0 0 16 13 380 890 1185 755 581 470 527 430 438 573 651 690 640 566 232 31 71 61 194 186 30 134 236 168 115 0 24 31 8 2 5 11 6 0 0 0 0 0 0 0 0 0 0 0 0 0 0 0 0 0 0 0 0 0 0 0 0 0
0 0 25 115 241 369 320 376 706 881 704 664 538 598 601 734 802 728 562 574 60 58 43 77 146 202 213 217 24 0 119 58 5 0 0 0 1 8 11 0 0 0 0 0 0 0 0 0 0 0 0 0 0 0 0 0 0 0 0 0 0 0 0
0 0 0 17 183 296 274 353 482 558 724 828 895 843 810 736 751 756 411 335 129 132 539 84 198 39 123 281 237 235 212 172 0 0 0 0 0 0 11 33 6 0 0 0 0 0 0 0 0 0 0 0 0 0 0 0 0 0 0 0 0 0 0
0 0 0 0 6 79 258 406 426 452 552 682 819 850 768 754 638 616 462 336 337 168 174 155 346 346 156 125 182 208 157 94 54 0 0 0 0 24 10 0 7 0 0 0 0 0 0 0 0 0 0 0 0 0 0 0 0 0 0 0 0 0 0
0 0 0 0 0 24 105 256 397 382 392 448 610 826 794 695 663 463 419 286 208 148 170 250 379 362 308 339 226 146 51 23 25 31 14 0 18 16 7 0 0 0 0 0 0 0 0 0 0 0 0 0 0 0 0 0 0 0 0 0 0 0 0
0 0 0 0 0 0 14 87 215 338 352 358 493 718 828 789 688 596 364 230 268 206 125 269 343 318 376 334 280 229 58 7 0 9 7 13 4 0 0 0 0 0 0 0 0 0 0 0 0 0 0 0 0 0 0 0 0 0 0 0 0 0 0
0 0 0 0 0 0 0 0 87 242 296 254 295 484 722 758 717 627 447 361 233 57 0 174 214 295 306 243 244 172 57 6 0 1 0 0 0 0 0 0 0 0 0 0 0 0 0 0 0 0 0 0 0 0 0 0 0 0 0 0 0 0 0
0 0 0 0 0 0 0 0 43 222 214 248 231 253 378 504 555 500 378 359 102 0 0 0 126 258 219 239 205 14 16 0 4 10 0 0 0 0 0 0 0 0 0 0 0 0 0 0 0 0 0 0 0 0 0 0 0 1 0 0 0 1 0
0 0 0 0 0 0 0 0 7 116 178 227 246 256 246 367 443 397 283 155 30 0 0 0 0 77 128 159 156 0 9 1 2 1 0 0 0 0 0 0 0 0 0 0 0 0 0 0 0 0 0 0 0 0 0 0 0 0 0 0 0 0 0
0 0 0 0 0 0 0 0 0 92 145 145 170 157 180 318 336 308 242 151 0 0 0 0 21 17 100 106 21 2 0 0 0 0 0 0 0 0 0 0 0 0 0 0 0 0 0 0 0 0 0 0 0 0 0 0 0 0 0 0 0 0 0
0 0 0 0 0 0 0 0 2 66 139 142 124 82 91 177 212 108 66 1 0 0 0 48 54 39 48 72 18 0 0 4 0 0 0 0 0 0 0 0 0 0 0 0 0 0 0 0 0 0 0 0 0 0 0 0 0 0 0 0 3 4 1
0 0 1 5 15 9 2 2 28 123 138 97 80 49 68 86 60 0 8 20 3 6 18 8 0 2 5 1 4 0 0 0 0 0 0 0 0 0 0 1 0 0 0 0 0 0 0 0 0 0 0 0 0 0 0 0 0 0 0 0 0 0 0
0 2 21 46 43 45 95 128 126 146 144 80 84 69 53 16 0 0 1 3 7 4 2 2 1 2 1 0 0 1 1 0 0 0 0 0 1 2 0 0 0 0 0 0 0 0 0 0 0 0 0 0 0 0 0 0 0 0 0 0 0 0 0
6 36 57 54 82 150 171 207 211 156 118 88 97 77 0 0 3 21 30 28 14 34 0 2 0 0 0 0 0 0 1 1 1 1 4 8 0 0 0 0 0 0 0 0 0 0 0 0 0 0 0 0 0 0 0 0 0 0 0 0 1 1 1
1 36 74 90 72 123 152 155 202 134 117 81 55 1 0 1 35 60 23 18 1 6 2 0 1 0 3 10 7 3 3 3 1 2 2 0 0 0 0 0 0 0 0 0 0 0 0 0 0 0 0 0 0 0 0 1 0 0 2 0 1 0 1
0 3 19 40 66 66 88 154 119 60 77 23 0 1 4 6 40 31 0 0 3 2 1 0 1 9 13 7 5 7 7 6 3 3 1 0 0 0 0 0 0 0 0 0 0 0 0 0 0 0 0 0 0 0 0 3 0 0 0 1 1 0 0

ECMWFFLT1_con_mucape_021.txt.gz
CAPE
0 0 0 0 0 0 0 0 0 0 0 0 0 0 0 0 0 0 0 0 0 0 0 0 0 0 0 13 367 449 83 71 66 60 322 378 400 389 358 27 156 518 683 317 314 163 2 108 102 594 578 361 757 567 553 533 652 797 417 297 501 779 664
0 0 0 0 0 0 0 0 0 0 0 0 0 0 0 0 0 0 0 0 0 0 0 0 0 0 0 0 0 0 83 14 53 64 74 74 74 28 41 138 234 340 472 422 77 6 1 28 31 274 306 774 666 483 426 450 563 591 541 433 433 590 306
0 0 0 0 0 0 0 0 0 0 0 0 0 0 0 0 0 0 0 0 0 0 0 0 0 0 0 0 0 0 0 0 0 0 0 0 0 0 0 0 13 588 161 136 13 2 23 17 6 26 0 0 4 218 628 474 361 411 624 463 434 625 648
0 0 0 0 0 0 0 0 0 0 0 0 0 0 0 0 0 0 0 0 0 0 0 0 0 0 0 0 0 0 0 0 0 0 0 0 0 0 0 0 0 0 0 0 0 0 0 0 0 0 0 0 0 0 188 590 596 600 672 895 660 532 488
0 0 0 0 0 0 0 0 0 0 0 0 0 0 0 0 0 0 0 0 0 0 0 0 0 0 0 0 0 0 0 0 0 0 0 0 0 0 0 0 0 0 0 0 0 0 0 0 0 0 0 0 7 6 0 956 888 718 808 884 866 640 546
0 0 0 0 0 0 0 0 0 0 0 0 0 0 0 0 0 0 0 0 0 0 0 0 0 0 0 0 0 0 0 0 0 0 0 0 0 0 0 0 0 0 0 0 0 0 0 0 0 0 0 0 0 0 0 0 15 383 559 479 542 530 453
0 0 0 0 0 0 0 0 0 0 0 0 0 0 0 0 0 0 0 0 0 0 0 0 0 0 0 0 0 0 0 0 0 0 0 0 0 0 0 0 0 0 0 0 0 0 0 0 0 0 0 0 0 0 0 0 0 0 0 0 0 250 560
5 0 0 1 5 3 2 0 0 0 0 0 0 0 0 0 0 0 0 0 0 0 0 0 0 0 0 0 0 0 0 0 0 0 0 0 0 0 0 0 0 0 0 0 0 0 0 0 0 0 0 0 0 0 0 0 0 0 0 0 0 0 0
36 1 4 9 23 5 9 0 0 0 0 0 0 0 0 0 0 0 0 0 0 0 0 0 0 0 0 0 0 0 0 0 0 0 0 0 0 0 0 0 0 0 0 0 0 0 0 0 0 0 0 0 0 0 0 0 0 0 0 0 0 0 0
40 21 13 2 204 40 12 0 16 0 0 0 0 0 0 0 0 0 0 0 0 0 0 0 0 0 0 0 0 0 0 0 0 0 0 0 0 0 0 0 0 0 0 0 0 0 0 0 0 0 0 0 0 0 0 0 0 0 0 0 0 0 0
4 15 23 0 12 267 140 4 248 24 0 0 0 0 0 0 0 7 0 0 0 0 0 0 0 0 0 0 0 0 0 0 0 0 0 0 0 0 0 0 0 0 0 0 0 0 0 0 0 0 0 0 0 0 0 0 0 0 0 0 0 0 0
42 2 85 8 4 361 167 109 226 171 20 0 0 0 0 2 0 0 0 0 0 0 0 0 0 0 0 0 0 0 0 0 0 0 0 0 0 0 0 0 0 0 0 0 0 0 0 0 0 0 0 0 0 0 0 0 0 0 0 0 0 0 0
167 35 285 70 5 241 238 166 112 339 236 17 0 0 0 17 0 0 0 0 0 0 0 0 0 0 0 0 0 0 0 0 0 0 0 0 0 0 0 0 0 0 0 0 0 0 0 0 0 0 0 0 0 0 0 0 0 0 0 0 0 0 0
725 524 433 416 162 188 260 259 175 155 346 228 199 77 75 83 68 0 0 0 0 0 0 0 0 0 0 0 0 0 0 0 0 0 0 0 0 0 0 0 0 0 0 0 0 0 0 0 0 0 0 0 0 0 0 0 0 0 0 0 0 0 0
782 678 555 613 457 344 334 524 540 390 322 350 293 288 288 283 247 202 192 3 0 0 0 0 0 0 0 0 0 0 0 0 0 0 0 0 0 0 0 0 0 0 0 0 0 0 0 0 0 0 0 0 0 0 0 0 0 0 0 0 0 0 0
648 585 571 604 771 820 770 648 524 320 342 352 402 414 340 321 304 290 252 230 187 15 0 0 0 0 0 0 0 0 0 0 0 0 0 0 0 0 0 0 0 0 0 0 0 0 0 0 0 0 0 0 0 0 0 0 0 0 0 0 0 0 0
706 636 537 522 671 712 828 802 646 544 412 7 27 492 486 446 406 364 332 298 245 198 156 31 0 0 0 0 0 0 0 0 0 0 0 0 0 0 0 0 0 0 0 0 0 0 0 0 0 0 0 0 0 0 0 0 0 0 0 0 0 0 0
497 457 459 495 562 563 580 678 725 701 621 412 260 524 398 432 502 464 429 385 302 248 204 173 101 168 171 159 94 0 0 0 0 0 0 0 0 0 0 0 0 0 0 0 0 0 0 0 0 0 0 0 0 0 0 0 0 0 0 0 0 0 0
387 565 553 554 590 676 753 602 553 604 483 322 29 604 575 406 282 292 317 282 254 227 259 244 217 189 186 199 189 158 0 0 0 0 0 0 0 1 1 0 0 0 0 0 0 0 0 0 0 0 0 0 0 0 0 0 0 0 0 0 0 0 0
516 766 700 645 546 433 653 630 480 341 403 452 326 417 385 337 35 56 50 36 22 25 203 264 257 239 191 161 161 154 145 126 101 0 0 0 1 8 13 16 12 3 0 0 0 0 0 0 0 0 0 0 0 0 0 0 0 0 0 0 0 0 0
694 892 860 916 729 468 420 647 659 528 456 338 281 95 186 147 97 68 62 64 56 134 231 246 112 249 175 60 7 10 148 141 0 0 0 0 0 0 0 0 0 4 0 0 0 0 0 0 0 0 0 0 0 0 0 0 0 0 0 0 0 0 0
672 674 635 776 803 844 751 641 678 771 669 571 483 368 243 104 98 152 215 49 95 44 95 202 238 247 196 141 0 0 125 168 150 50 0 0 0 0 0 1 17 7 2 0 0 7 10 0 0 0 0 0 0 0 0 0 0 0 0 0 0 0 0
0 0 0 0 178 300 756 998 963 880 754 638 649 620 568 502 444 399 370 315 165 8 0 103 289 263 195 72 18 97 171 167 161 149 132 125 116 0 0 43 34 9 4 2 8 8 4 0 0 0 0 0 0 0 0 0 0 0 0 0 0 0 0
0 0 0 0 0 0 0 327 811 743 597 534 532 535 518 495 500 482 486 454 407 406 405 394 401 317 231 173 132 0 8 188 189 161 135 116 2 0 0 50 8 8 6 3 2 7 2 0 0 0 0 0 0 0 0 0 0 0 0 0 0 0 0
0 0 0 0 0 0 4 48 82 238 607 658 573 521 579 580 574 554 523 552 535 499 436 424 432 422 339 208 0 0 0 39 157 179 152 121 24 0 32 35 3 3 1 0 6 6 2 0 0 0 0 0 0 0 0 0 0 0 0 0 0 0 0
0 0 0 0 0 0 0 0 0 2 220 513 559 666 709 700 678 619 641 679 670 646 632 576 540 444 332 259 9 0 0 24 222 190 144 114 63 6 0 0 0 0 2 2 3 2 0 0 0 0 0 0 0 0 0 0 0 0 0 0 0 0 0
0 0 0 0 0 0 0 0 0 0 0 0 12 455 732 789 791 840 760 671 658 626 603 596 546 493 403 343 296 283 82 82 80 51 55 52 85 84 53 0 1 2 2 1 0 0 0 0 0 0 0 0 0 0 0 0 0 0 0 0 0 0 0
0 0 0 0 0 0 0 0 0 0 0 0 2 42 47 83 470 606 610 584 523 526 565 573 512 432 380 278 221 263 329 54 0 0 0 7 0 0 0 8 2 2 3 1 0 0 0 0 0 0 0 0 0 0 0 0 0 0 0 0 0 0 0
0 0 0 0 0 0 0 0 0 0 0 0 0 0 37 66 206 381 499 506 523 552 544 520 488 423 328 26 0 164 199 227 174 0 6 3 1 2 2 5 7 7 6 1 0 0 0 0 0 0 0 0 0 0 0 0 0 0 0 0 0 0 0
0 0 0 0 0 0 0 0 0 0 0 0 0 0 0 0 116 331 490 550 511 513 535 534 509 452 358 263 63 59 65 0 0 0 0 0 4 4 4 3 5 8 5 1 0 0 0 0 0 0 0 0 0 0 0 0 0 0 0 0 0 0 0
0 0 0 0 0 0 0 0 0 0 0 0 0 0 0 0 0 0 103 293 354 412 471 446 425 387 317 237 192 135 0 0 1 0 0 0 1 2 5 6 9 2 0 0 0 0 0 0 0 0 0 0 0 0 0 0 0 0 0 0 0 0 0
0 0 0 0 0 0 0 0 0 0 0 0 0 0 0 0 0 0 0 0 109 213 259 242 234 241 228 226 220 105 45 0 0 0 0 1 3 2 2 0 2 3 5 1 0 0 0 0 0 0 0 0 0 0 0 0 0 0 0 0 0 0 0
0 0 0 0 0 0 0 0 0 0 0 0 0 0 0 0 0 0 0 0 0 0 0 0 0 3 163 174 177 182 191 139 57 16 14 18 16 15 16 13 6 0 0 0 0 1 1 0 0 0 0 0 0 0 0 0 0 0 0 0 0 0 0
0 0 0 0 0 0 0 0 0 0 0 0 0 0 0 0 0 0 0 0 0 0 0 24 0 112 126 123 120 145 153 123 51 14 13 19 21 11 7 2 2 1 0 3 4 2 0 0 3 6 2 0 0 0 0 0 0 0 0 0 0 0 0
0 0 0 0 0 0 0 0 0 0 0 0 0 0 0 0 0 0 0 0 0 0 0 0 0 0 0 20 65 71 64 32 7 2 10 8 9 2 1 2 6 6 8 8 2 4 5 9 12 6 1 0 0 0 0 0 0 0 0 0 0 0 0
0 0 0 0 0 0 0 0 0 0 0 0 0 0 0 0 0 0 0 0 0 0 0 36 3 0 0 0 3 7 9 13 24 22 12 6 6 4 4 6 10 14 10 8 4 4 5 5 2 0 0 0 0 0 0 0 0 0 0 0 0 0 0
0 0 0 0 0 0 0 0 0 0 0 0 0 0 0 0 0 0 0 0 0 28 45 31 7 0 0 0 9 14 18 20 22 10 9 13 3 2 2 9 14 9 6 6 6 3 0 0 0 0 0 0 0 0 0 0 0 0 0 0 0 1 4

ECMWFFLT1_con_mucape_024.txt.gz
CAPE
0 0 0 0 0 0 0 0 0 0 0 0 0 0 0 0 0 0 0 0 0 0 0 0 0 0 276 483 462 207 373 532 516 538 543 596 409 464 516 416 393 502 676 393 266 39 0 84 265 237 538 688 578 429 504 445 451 492 624 460 321 450 543
0 0 0 0 0 0 0 0 0 0 0 0 0 0 0 0 0 0 0 0 0 0 0 0 0 0 0 126 103 0 0 92 376 350 386 482 467 455 439 454 339 577 463 164 9 11 1 3 2 124 0 0 168 361 408 282 332 349 418 439 390 580 576
0 0 0 0 0 0 0 0 0 0 0 0 0 0 0 0 0 0 0 0 0 0 0 0 0 0 0 0 0 0 0 0 27 168 62 135 198 191 262 352 312 469 312 2 7 12 10 4 4 3 0 0 0 0 35 384 460 247 132 241 395 523 572
0 0 0 0 0 0 0 0 0 0 0 0 0 0 0 0 0 0 0 0 0 0 0 0 0 0 0 0 0 0 0 0 0 0 0 0 0 20 48 234 415 308 0 0 0 0 0 0 0 0 0 0 0 0 0 14 229 343 284 298 346 491 384
0 0 0 0 0 0 0 0 0 0 0 0 0 0 0 0 0 0 0 0 0 0 0 0 0 0 0 0 0 0 0 0 0 0 0 0 0 0 0 0 0 0 0 0 0 0 0 0 0 0 0 0 0 0 0 0 34 90 96 162 335 569 679
0 0 0 0 0 0 0 0 0 0 0 0 0 0 0 0 0 0 0 0 0 0 0 0 0 0 0 0 0 0 0 0 0 0 0 0 0 0 0 0 0 0 0 0 0 0 0 0 0 0 0 0 0 0 0 0 0 0 0 0 0 389 692
0 0 0 0 0 0 0 0 0 0 0 0 0 0 0 0 0 0 0 0 0 0 0 0 0 0 0 0 0 0 0 0 0 0 0 0 0 0 0 0 0 0 0 0 0 0 0 0 0 0 0 0 0 0 0 0 0 0 0 0 0 0 76
0 0 0 0 0 0 0 0 0 0 0 0 0 0 0 0 0 0 0 0 0 0 0 0 0 0 0 0 0 0 0 0 0 0 0 0 0 0 0 0 0 0 0 0 0 0 0 0 0 0 0 0 0 0 0 0 0 0 0 0 0 0 0
0 0 0 0 0 0 0 0 0 0 0 0 0 0 0 0 0 0 0 0 0 0 0 0 0 0 0 0 0 0 0 0 0 0 0 0 0 0 0 0 0 0 0 0 0 0 0 0 0 0 0 0 0 0 0 0 0 0 0 0 0 0 0
0 0 0 0 0 0 0 0 0 0 0 0 0 0 0 0 0 0 0 0 0 0 0 0 0 0 0 0 0 0 0 0 0 0 0 0 0 0 0 0 0 0 0 0 0 0 0 0 0 0 0 0 0 0 0 0 0 0 0 0 0 0 0
0 0 0 0 0 0 0 0 68 0 0 0 0 0 0 0 0 0 0 0 0 0 0 0 0 0 0 0 0 0 0 0 0 0 0 0 0 0 0 0 0 0 0 0 0 0 0 0 0 0 0 0 0 0 0 0 0 0 0 0 0 0 0
0 0 0 0 0 0 0 124 113 150 104 30 0 0 0 0 0 0 0 0 0 0 0 0 0 0 0 0 0 0 0 0 0 0 0 0 0 0 0 0 0 0 0 0 0 0 0 0 0 0 0 0 0 0 0 0 0 0 0 0 0 0 0
0 0 0 0 4 0 0 195 183 213 130 170 163 81 0 0 0 0 0 0 0 0 0 0 0 0 0 0 0 0 0 0 0 0 0 0 0 0 0 0 0 0 0 0 0 0 0 0 0 0 0 0 0 0 0 0 0 0 0 0 0 0 0
0 5 1 0 3 323 227 238 280 250 184 199 197 189 139 44 0 0 0 0 0 0 0 0 0 0 0 0 0 0 0 0 0 0 0 0 0 0 0 0 0 0 0 0 0 0 0 0 0 0 0 0 0 0 0 0 0 0 0 0 0 0 0
0 0 0 10 3 36 308 300 341 270 242 230 209 212 196 202 196 166 149 171 2 0 0 0 0 0 0 0 0 0 0 0 0 0 0 0 0 0 0 0 0 0 0 0 0 0 0 0 0 0 0 0 0 0 0 0 0 0 0 0 0 0 0
38 5 16 21 26 31 33 267 360 273 280 255 256 55 65 172 146 21 22 202 216 182 17 0 0 0 0 0 0 0 0 0 0 0 0 0 0 0 0 0 0 0 0 0 0 0 0 0 0 0 0 0 0 0 0 0 0 0 0 0 0 0 0
104 268 44 28 45 22 33 26 344 347 329 330 340 344 350 96 99 89 65 40 230 51 30 0 0 0 0 0 0 0 0 0 0 0 0 0 0 0 0 0 0 0 0 0 0 0 0 0 0 0 0 0 0 0 0 0 0 0 0 0 0 0 0
340 326 227 81 117 380 426 461 448 433 417 445 443 421 406 377 367 338 323 310 311 292 266 176 78 0 0 0 0 0 0 0 0 0 0 0 0 0 0 0 0 0 0 0 0 0 0 0 0 0 0 0 0 0 0 0 0 0 0 0 0 0 0
222 382 102 352 264 492 413 515 424 545 510 462 407 445 467 422 393 403 374 359 349 355 341 314 288 277 250 216 183 29 0 0 0 0 0 0 0 0 0 0 0 0 0 0 0 0 0 0 0 0 0 0 0 0 0 0 0 0 0 0 0 0 0
224 58 70 42 34 106 212 446 652 662 609 590 573 526 385 494 504 517 496 444 414 397 362 348 323 297 272 244 216 209 183 0 0 0 0 0 2 1 0 0 0 0 0 0 0 0 0 0 1 1 0 0 0 0 0 0 0 0 0 0 0 0 0
473 448 401 233 149 160 71 276 500 576 564 601 550 426 196 19 346 406 428 357 226 232 249 309 321 316 287 252 235 234 214 199 47 0 0 0 0 0 0 0 0 0 0 0 0 0 0 0 3 4 2 0 0 0 0 0 0 0 0 0 0 0 0
538 701 608 636 705 708 611 550 536 517 447 427 419 412 356 275 13 3 0 0 0 0 0 0 1 56 265 260 238 240 230 214 206 165 0 0 0 0 13 0 0 0 0 45 2 0 0 0 1 2 2 0 0 0 0 0 0 0 0 0 0 0 0
656 730 687 676 722 740 779 705 619 577 637 650 631 635 667 643 588 524 421 342 142 115 0 123 119 0 5 156 256 255 250 227 224 210 172 90 0 0 114 73 0 9 54 45 10 0 0 0 1 1 1 0 0 0 0 0 0 0 0 0 0 0 0
441 453 349 190 16 144 306 360 660 763 768 815 806 767 724 642 631 640 589 535 455 448 466 427 375 350 278 0 216 234 225 272 245 190 190 170 140 137 145 125 104 88 58 28 17 7 2 5 6 2 1 1 0 0 0 0 0 0 0 0 0 0 0
0 0 0 0 0 0 0 0 15 354 664 739 704 579 506 442 435 477 512 530 533 541 549 594 598 562 501 440 401 370 343 325 299 240 213 203 181 160 147 125 132 132 110 55 15 8 2 1 1 0 0 2 0 0 0 0 0 0 0 0 0 0 0
0 0 0 0 0 0 0 0 0 27 114 160 182 308 310 385 443 486 532 589 610 604 642 641 619 617 627 594 542 479 431 389 314 257 196 180 162 160 156 134 144 134 94 63 14 4 1 1 5 8 3 0 0 0 0 0 0 0 0 0 0 0 0
0 0 0 0 0 0 0 0 0 0 0 0 1 19 147 300 447 532 570 636 741 732 690 667 622 605 583 513 463 400 389 371 304 162 0 0 0 191 163 132 110 85 22 11 5 11 2 0 0 3 4 0 0 0 0 0 0 0 0 0 0 0 0
0 0 0 0 0 0 0 0 0 0 0 0 0 0 0 0 133 346 482 676 855 804 714 648 565 547 514 439 366 293 283 295 331 351 321 294 0 0 0 4 15 0 4 10 7 2 0 0 0 0 0 0 0 0 0 0 0 0 0 0 0 0 0
0 0 0 0 0 0 0 0 0 0 0 0 0 0 0 0 0 40 278 617 814 761 608 508 508 490 426 367 307 237 94 49 191 225 213 41 0 79 0 11 0 0 1 3 2 0 0 0 0 0 0 0 1 1 0 0 0 0 0 0 0 0 0
0 0 0 0 0 0 0 0 0 0 0 0 0 0 0 0 0 0 144 444 602 598 561 474 409 328 286 255 208 0 0 0 0 0 0 0 0 0 7 2 6 8 2 2 0 2 0 0 0 0 0 1 2 0 0 0 0 0 0 0 0 0 0
0 0 0 0 0 0 0 0 0 0 0 0 0 0 0 0 0 0 72 352 456 519 559 517 466 384 280 228 201 73 0 0 0 0 0 28 32 10 8 4 6 4 3 2 1 2 0 0 1 0 0 0 0 0 0 0 0 0 0 0 0 0 0
0 0 0 0 0 0 0 0 0 0 0 0 0 0 0 0 0 0 0 113 332 389 377 339 244 209 200 188 173 172 108 0 0 0 20 20 14 6 5 6 8 6 2 2 0 0 0 1 0 0 0 0 0 0 0 0 0 0 0 0 0 0 0
0 0 0 0 0 0 0 0 0 0 0 0 0 0 0 0 0 0 0 8 215 297 264 215 176 174 178 63 7 147 136 0 62 36 8 4 4 7 8 6 6 5 5 0 2 2 2 0 0 0 0 0 0 0 0 0 0 0 0 0 0 0 0
0 0 0 0 0 0 0 0 0 0 0 0 0 0 0 0 0 0 0 0 0 181 196 194 182 169 151 5 67 0 55 102 39 0 1 0 2 7 7 2 1 2 2 2 2 0 0 0 0 1 1 0 0 0 0 0 0 0 0 0 0 0 0
0 0 0 0 0 0 0 0 0 0 0 0 0 0 0 0 0 0 0 0 0 136 160 163 156 124 111 111 124 130 19 36 0 2 7 3 16 4 0 0 0 1 2 3 0 0 3 6 8 6 5 1 0 0 0 0 0 0 0 0 0 0 0
0 0 0 0 0 0 0 0 0 0 0 0 0 0 0 0 0 0 0 0 0 35 92 105 101 99 86 82 54 16 0 0 0 0 8 5 0 0 2 4 3 5 6 6 5 8 7 6 4 0 0 0 0 0 0 0 0 0 0 0 0 0 0
0 0 0 0 0 0 0 0 0 0 0 0 0 0 0 0 0 0 0 0 0 0 22 62 79 77 58 32 10 1 0 0 0 0 1 5 2 12 2 5 6 4 5 7 10 9 4 0 0 0 0 0 0 0 0 0 0 0 0 0 0 0 0

ECMWFFLT1_con_mucape_027.txt.gz
CAPE
0 0 0 0 0 0 0 0 0 0 0 0 0 0 0 0 0 0 0 309 418 395 302 256 365 398 384 299 419 499 676 709 650 673 560 609 568 529 590 564 502 536 522 407 47 188 1 209 373 496 256 226 380 468 421 369 139 36 85 349 513 397 336
0 0 0 0 0 0 0 0 0 0 0 0 0 0 0 0 0 0 0 36 33 24 0 28 244 93 86 50 75 346 424 453 455 488 542 510 498 563 539 603 508 494 440 359 264 258 125 46 63 143 69 34 27 0 0 43 347 378 493 564 570 526 603
0 0 0 0 0 0 0 0 0 0 0 0 0 0 0 0 0 0 0 0 0 0 0 0 0 0 0 0 0 0 0 209 212 270 333 310 316 408 545 566 492 528 62 0 0 31 82 45 58 8 0 7 19 0 0 0 0 146 247 259 314 512 590
0 0 0 0 0 0 0 0 0 0 0 0 0 0 0 0 0 0 0 0 0 0 0 0 0 0 0 0 0 0 0 0 0 0 0 0 28 0 50 409 491 292 185 0 0 2 5 6 1 0 0 0 0 0 0 0 0 0 0 167 402 486 610
0 1 1 0 0 0 0 0 0 0 0 0 0 0 0 0 0 0 0 0 0 0 0 0 0 0 0 0 0 0 0 0 0 0 0 0 0 0 0 80 112 144 109 0 0 0 0 0 1 0 16 3 0 0 0 0 0 0 0 0 50 47 0
0 0 0 0 0 0 0 0 0 0 0 0 0 0 0 0 0 0 0 0 0 0 0 0 0 0 0 0 0 0 0 0 0 0 0 0 0 0 0 0 0 0 0 0 0 0 0 0 0 0 2 0 0 0 0 0 0 0 0 0 3 24 0
0 0 10 3 0 0 0 0 0 0 0 0 0 0 0 0 0 0 0 0 0 0 0 0 0 0 0 0 0 0 0 0 0 0 0 0 0 0 0 0 0 0 0 0 0 0 0 0 0 0 0 0 0 0 0 0 0 0 0 0 0 0 0
0 0 8 6 0 0 0 0 0 0 0 0 0 0 0 0 0 0 0 0 0 0 0 0 0 0 0 0 0 0 0 0 0 0 0 0 0 0 0 0 0 0 0 0 0 0 0 0 0 0 0 0 0 0 0 0 0 0 0 0 0 0 0
0 0 2 3 0 0 0 0 0 0 0 0 0 0 0 0 0 0 0 0 0 0 0 0 0 0 0 0 0 0 0 0 0 0 0 0 0 0 0 0 0 0 0 0 0 0 0 0 0 0 0 0 0 0 0 0 0 0 0 0 0 0 0
0 0 0 0 0 0 0 0 0 0 0 0 0 0 0 0 0 0 0 0 0 0 0 0 0 0 0 0 0 0 0 0 0 0 0 0 0 0 0 0 0 0 0 0 0 0 0 0 0 0 0 0 0 0 0 0 0 0 0 0 0 0 57
0 0 0 0 0 0 0 0 0 0 0 0 0 0 0 0 0 0 0 0 0 0 0 0 0 0 0 0 0 0 0 0 0 0 0 0 0 0 0 0 0 0 0 0 0 0 0 0 0 0 0 0 0 0 0 0 0 0 0 0 0 0 0
0 0 0 0 0 0 0 0 0 0 0 0 0 0 0 0 0 0 0 0 0 0 0 0 0 0 0 0 0 0 0 0 0 0 0 0 0 0 0 0 0 0 0 0 0 0 0 0 0 0 0 0 0 0 0 0 0 0 0 0 0 0 0
0 0 0 0 0 0 0 0 0 0 0 0 0 0 0 0 0 0 0 0 0 0 0 0 0 0 0 0 0 0 0 0 0 0 0 0 0 0 0 0 0 0 0 0 0 0 0 0 0 0 0 0 0 0 0 0 0 0 0 0 0 0 0
0 0 0 0 0 0 0 0 0 0 0 0 0 0 0 0 0 0 0 0 0 0 0 0 0 0 0 0 0 0 0 0 0 0 0 0 0 0 0 0 0 0 0 0 0 0 0 0 0 0 0 0 0 0 0 0 0 0 0 0 0 0 0
0 0 0 10 0 0 3 0 0 0 1 88 71 68 0 0 0 0 0 0 0 0 0 0 0 0 0 0 0 0 0 0 0 0 0 0 0 0 0 0 0 0 0 0 0 0 0 0 0 0 0 0 0 0 0 0 0 0 0 0 0 0 0
47 21 15 24 29 19 10 0 0 0 130 135 124 3 8 15 17 8 1 0 0 0 0 0 0 0 0 0 0 0 0 0 0 0 0 0 0 0 0 0 0 0 0 0 0 0 0 0 0 0 0 0 0 0 0 0 0 0 0 0 0 0 0
108 77 65 52 40 17 32 0 32 251 226 203 183 0 0 4 3 0 0 1 2 6 0 0 0 0 0 0 0 0 0 0 0 0 0 0 0 0 0 0 0 0 0 0 0 0 0 0 0 0 0 0 0 0 0 0 0 0 0 0 0 0 0
87 136 51 24 36 39 47 20 0 0 0 0 0 0 0 0 0 96 0 0 3 4 2 84 8 6 1 0 0 0 0 0 0 0 0 0 0 0 0 0 0 0 0 0 0 0 0 0 0 0 0 0 0 0 0 0 0 0 0 0 0 0 0
126 122 57 31 59 48 57 63 44 0 0 0 0 0 0 0 0 11 244 0 0 36 267 7 40 20 3 4 1 0 0 0 0 0 0 0 0 0 0 0 0 0 0 0 0 0 0 0 0 0 0 0 0 0 0 0 0 0 0 0 0 0 0
223 34 51 48 60 48 37 48 41 13 0 203 0 0 0 8 0 111 232 319 360 368 369 358 360 362 232 85 8 8 174 162 0 0 8 0 0 0 0 0 0 0 0 0 0 0 0 0 0 0 0 0 0 0 0 0 0 0 0 0 0 0 0
121 110 92 186 305 47 48 68 46 256 191 53 28 333 16 6 269 222 214 292 445 471 491 441 415 424 362 332 300 95 22 236 226 229 223 210 176 42 0 0 0 0 0 0 13 9 2 0 0 0 0 0 0 0 0 0 0 0 0 0 0 0 0
20 112 120 56 49 462 155 62 45 10 110 35 98 44 64 299 318 266 149 412 564 548 535 510 372 0 0 16 40 48 59 59 254 254 228 217 193 166 123 99 0 0 0 0 19 19 14 5 3 1 0 0 0 0 0 0 0 0 0 0 0 0 0
354 363 128 268 294 336 223 56 56 5 106 91 75 26 66 87 247 247 330 393 401 409 372 290 282 257 192 80 90 92 86 104 144 262 249 233 209 183 140 125 100 83 48 23 28 36 35 24 12 9 9 3 0 0 0 0 0 0 0 0 0 0 0
247 253 252 248 303 315 341 326 454 553 552 476 362 253 66 576 722 697 644 628 632 609 576 510 519 502 490 464 426 378 336 306 264 238 219 200 231 205 179 151 141 124 104 55 46 16 5 12 13 10 7 1 0 0 0 0 0 0 0 0 0 0 0
586 680 668 612 584 581 555 565 551 544 528 550 634 747 727 751 725 638 512 501 507 552 580 588 595 578 565 539 497 485 469 466 456 440 422 390 376 316 285 223 165 3 1 0 51 15 14 11 5 8 3 2 3 0 0 0 0 0 0 0 0 0 0
64 293 202 0 0 0 0 0 0 0 4 85 142 205 258 238 268 348 424 450 466 553 606 617 614 578 539 516 507 529 539 523 522 501 479 474 448 393 314 250 216 156 136 119 100 78 44 26 7 21 13 8 9 0 0 0 0 0 0 0 0 0 0
0 0 0 0 0 0 0 0 0 0 0 60 110 138 147 114 38 61 207 313 397 538 674 714 660 590 526 485 425 365 326 309 335 349 368 391 359 308 263 232 193 157 157 118 36 73 14 21 16 10 18 8 8 2 0 0 0 0 0 0 0 0 0
0 0 0 0 0 0 0 0 0 0 0 0 0 0 0 0 0 0 0 0 282 451 672 723 656 587 488 389 347 294 250 220 224 255 284 303 320 347 361 339 269 203 121 82 12 25 20 19 9 11 10 9 4 0 0 0 0 0 0 0 0 0 0
0 0 0 0 0 0 0 0 0 0 0 0 0 0 0 0 0 0 0 0 183 397 540 602 601 504 398 320 228 71 0 0 0 0 152 188 233 282 278 248 142 0 26 12 31 32 5 4 0 1 2 1 0 0 0 0 0 0 0 0 0 0 0
0 0 0 0 0 0 0 0 0 0 0 0 0 0 0 0 0 0 0 0 16 248 442 485 446 337 230 189 117 0 0 0 0 0 0 0 104 105 0 30 0 8 16 7 9 12 12 11 12 2 3 0 0 0 0 0 0 0 0 0 0 0 0
0 0 0 0 0 0 0 0 0 0 0 0 0 0 0 0 0 0 0 0 0 22 267 339 375 334 277 205 132 0 0 0 0 0 0 0 0 0 0 0 50 27 13 6 6 10 5 8 4 1 0 0 0 0 0 0 0 0 0 0 0 0 0
0 0 0 0 0 0 0 0 0 0 0 0 0 0 0 0 0 0 0 0 0 0 108 250 330 347 274 189 137 0 0 0 0 0 0 0 0 0 0 0 24 16 6 6 9 7 4 1 1 0 0 0 0 0 0 0 0 0 0 0 0 0 0
0 0 0 0 0 0 0 0 0 0 0 0 0 0 0 0 0 0 0 0 0 0 0 178 247 272 186 50 0 0 0 0 0 0 0 0 0 2 4 8 17 16 18 20 20 24 4 4 3 1 0 0 0 1 0 0 0 0 0 0 0 0 0
0 0 0 0 0 0 0 0 0 0 0 0 0 0 0 0 0 0 0 0 0 0 0 46 171 184 168 135 128 54 0 0 0 0 0 0 0 0 1 3 6 12 9 6 9 2 4 3 1 0 0 1 2 1 0 0 0 0 0 0 0 0 0
4 9 7 2 0 0 0 0 0 0 0 0 0 0 0 0 0 0 0 0 0 0 0 30 145 160 176 177 147 109 96 78 26 0 0 0 0 0 0 0 0 3 9 2 1 1 2 0 0 2 5 4 0 0 0 0 0 0 0 0 0 0 0
7 8 7 1 0 0 0 0 0 0 0 0 0 0 0 0 0 0 0 0 0 0 0 12 124 152 159 140 127 114 102 74 38 12 7 6 0 0 0 4 8 3 4 2 1 1 4 4 4 6 5 2 1 4 3 0 0 0 0 0 0 0 0
5 4 1 0 0 0 0 0 0 0 0 0 0 0 0 0 0 0 0 0 0 0 0 0 0 61 107 108 102 98 75 28 9 1 0 0 0 0 2 2 0 0 0 2 2 1 5 6 10 4 2 3 2 0 0 0 0 0 0 0 0 0 0

ECMWFFLT1_con_mucape_030.txt.gz
CAPE
0 0 0 0 0 0 0 0 0 0 0 0 0 238 335 302 251 306 413 469 487 372 291 267 250 44 258 402 512 591 664 606 606 540 445 470 394 367 483 551 500 416 327 419 260 90 0 147 183 66 0 0 134 214 232 230 246 123 52 149 482 751 575
0 0 0 0 0 0 0 0 0 0 0 0 0 0 0 0 24 218 363 401 331 242 236 249 232 0 0 289 378 436 490 496 428 422 405 495 463 498 505 500 541 248 350 385 303 271 4 231 38 22 0 0 0 0 0 197 316 403 417 460 560 651 588
0 0 0 0 0 0 0 0 0 0 0 0 0 0 0 0 0 0 0 0 96 114 137 0 0 0 0 0 170 240 270 296 320 354 279 304 358 489 465 427 5 141 70 76 0 0 91 68 2 0 0 0 0 0 0 0 0 125 153 286 291 271 382
0 0 0 0 0 0 0 0 0 0 0 0 0 0 0 0 0 0 0 0 0 0 0 0 0 0 0 0 0 0 0 0 0 0 22 90 126 227 231 247 307 123 22 19 3 0 12 30 4 2 0 0 0 0 0 0 0 0 0 0 0 25 393
0 0 0 0 0 0 0 0 0 0 0 0 0 0 0 0 0 0 0 0 0 0 0 0 0 0 0 0 0 0 0 0 0 0 0 0 0 0 28 89 92 0 0 0 0 0 0 0 1 0 0 0 0 0 0 0 0 0 0 0 0 98 154
0 0 0 0 0 0 0 0 0 0 0 0 0 0 0 0 0 0 0 0 0 0 0 0 0 0 0 0 0 0 0 0 0 0 0 0 0 0 0 0 0 0 0 0 0 0 0 0 0 0 0 0 0 0 0 0 0 0 0 0 0 13 45
0 0 0 0 0 2 2 0 0 0 0 0 0 0 0 0 0 0 0 0 0 0 0 0 0 0 0 0 0 0 0 0 0 0 0 0 0 0 0 0 0 0 0 0 0 0 0 0 0 0 0 0 0 0 0 0 0 0 0 0 0 7 34
0 0 0 0 0 3 3 0 0 0 0 0 0 0 0 0 0 0 0 0 0 0 0 0 0 0 0 0 0 0 0 0 0 0 0 0 0 0 0 0 0 0 0 0 0 0 0 0 0 0 0 0 0 0 0 0 0 0 0 0 0 0 0
0 0 0 0 0 0 0 0 0 0 0 0 0 0 0 0 0 0 0 0 0 0 0 0 0 0 0 0 0 0 0 0 0 0 0 0 0 0 0 0 0 0 0 0 0 0 0 0 0 0 0 0 0 0 0 0 0 0 0 0 0 0 0
0 0 0 0 0 0 0 0 0 0 0 0 0 0 0 0 0 0 0 0 0 0 0 0 0 0 0 0 0 0 0 0 0 0 0 0 0 0 0 0 0 0 0 0 0 0 0 0 0 0 0 0 0 0 0 0 0 0 0 0 0 0 0
0 0 0 0 0 0 0 0 0 0 0 0 0 0 0 0 0 0 0 0 0 0 0 0 0 0 0 0 0 0 0 0 0 0 0 0 0 0 0 0 0 0 0 0 0 0 0 0 0 0 0 0 0 0 0 0 0 0 0 0 0 0 0
0 0 0 0 0 0 0 0 0 0 0 0 0 0 0 0 0 0 0 0 0 0 0 0 0 0 0 0 0 0 0 0 0 0 0 0 0 0 0 0 0 0 0 0 0 0 0 0 0 0 0 0 0 0 0 0 0 0 0 0 0 0 0
20 0 0 0 0 0 0 0 0 0 0 0 0 0 0 0 0 0 0 0 0 0 0 0 0 0 0 0 0 0 0 0 0 0 0 0 0 0 0 0 0 0 0 0 0 0 0 0 0 0 0 0 0 0 0 0 0 0 0 0 0 0 0
14 28 33 22 2 0 0 0 0 0 0 0 0 0 0 0 0 0 0 0 0 0 0 0 0 0 0 0 0 0 0 0 0 0 0 0 0 0 0 0 0 0 0 0 0 0 0 0 0 0 0 0 0 0 0 0 0 0 0 0 0 0 0
40 56 49 54 11 0 0 0 0 0 0 0 0 0 0 0 0 0 0 0 0 0 0 0 0 0 0 0 0 0 0 0 0 0 0 0 0 0 0 0 0 0 0 0 0 0 0 0 0 0 0 0 0 0 0 0 0 0 0 0 0 0 0
91 111 90 31 0 0 0 0 0 0 0 0 0 0 0 0 0 0 0 0 0 0 0 0 0 0 0 0 0 0 0 0 0 0 0 0 0 0 0 0 0 0 0 0 0 0 0 0 0 0 0 0 0 0 0 0 0 0 0 0 0 0 0
444 158 44 38 11 0 0 0 0 0 0 0 0 0 0 0 0 0 0 0 0 0 0 0 0 22 0 0 0 0 0 0 0 0 0 0 0 0 0 0 0 0 0 0 0 0 0 0 0 0 0 0 0 0 0 0 0 0 0 0 0 0 0
447 0 0 59 44 9 6 1 0 0 0 0 0 191 192 178 12 0 0 0 0 0 0 0 0 58 0 0 0 0 0 0 0 0 0 0 0 0 0 0 0 0 0 0 0 0 0 0 0 0 0 0 0 0 0 0 0 0 0 0 0 0 0
320 147 163 104 86 53 15 4 0 0 16 0 0 0 0 239 245 175 72 0 0 0 0 0 2 4 5 47 123 30 0 0 0 0 0 0 12 10 30 6 0 0 0 0 0 0 0 0 0 0 0 0 0 0 0 0 0 0 0 0 0 0 0
353 311 216 217 157 149 88 0 0 0 0 0 3 0 0 0 0 28 0 0 0 0 2 4 9 5 23 48 0 202 224 211 0 0 0 76 0 0 44 32 13 8 7 5 2 0 0 2 2 1 0 0 0 0 0 0 0 0 0 0 0 0 0
455 400 289 288 263 222 124 32 4 0 0 0 0 0 0 0 0 0 0 2 0 0 0 0 0 0 13 169 65 87 299 303 268 225 62 140 0 0 1 2 13 22 6 20 16 9 8 11 15 16 10 3 0 0 0 0 0 0 0 0 0 0 0
477 384 336 261 160 127 54 17 9 0 213 196 1 9 7 0 0 0 19 3 0 0 0 0 77 312 258 268 262 16 0 0 28 120 213 176 0 0 0 5 87 48 1 3 0 0 4 16 19 18 8 3 0 0 0 0 0 0 0 0 0 0 0
496 440 375 393 263 71 200 255 394 307 121 6 18 10 11 2 1 6 11 232 236 132 41 154 322 318 313 250 87 90 84 54 42 0 0 0 94 96 75 7 0 74 67 25 0 0 3 9 4 13 21 18 8 1 0 0 0 0 0 0 0 0 0
354 287 302 356 422 464 185 296 384 372 343 17 14 8 12 4 0 0 0 0 0 250 462 476 459 407 380 347 329 302 284 278 257 241 232 219 222 219 213 189 170 122 0 0 8 33 0 0 0 6 8 10 6 5 2 4 0 0 0 0 0 0 0
403 351 323 323 332 338 221 85 67 48 156 372 496 449 382 372 290 69 21 324 559 597 519 464 437 452 470 470 480 457 428 393 381 367 344 304 283 256 248 231 228 175 154 66 42 74 28 9 1 2 2 2 0 13 2 0 1 1 2 0 0 0 0
479 416 398 485 509 545 518 488 483 476 306 224 91 338 370 414 455 402 443 511 460 388 448 508 493 475 444 424 411 403 390 376 386 388 386 405 405 399 394 377 326 282 245 216 127 97 36 17 6 4 1 14 6 13 10 7 11 0 0 0 0 0 0
235 451 662 655 519 278 178 140 91 13 15 6 56 102 203 237 246 249 289 344 327 301 410 546 582 522 439 385 349 317 260 247 235 228 230 235 252 273 302 300 299 271 238 216 202 160 106 61 45 47 5 5 8 4 7 12 6 4 0 0 0 0 0
0 0 0 21 54 0 0 0 0 0 0 0 0 0 0 89 92 76 0 0 0 18 290 515 609 562 468 373 299 244 198 36 0 0 0 131 190 230 258 278 285 268 236 214 219 182 133 92 56 18 6 14 6 14 11 3 0 0 0 0 0 0 0
0 0 0 0 0 0 0 0 0 0 0 0 0 0 0 0 0 0 0 0 0 0 0 334 499 551 439 387 260 173 0 0 0 0 0 0 0 41 166 224 274 297 266 180 71 15 14 13 3 10 20 18 13 8 1 0 0 0 0 0 0 0 0
0 0 0 0 0 0 0 0 0 0 0 0 0 0 0 0 0 0 0 0 0 0 0 0 295 445 452 364 223 35 0 0 0 0 0 0 0 0 50 116 170 180 122 0 0 0 0 4 8 10 9 15 12 6 3 2 1 0 0 0 0 0 0
0 0 0 0 0 0 0 0 0 0 0 0 0 0 0 0 0 0 0 0 0 0 0 0 59 232 323 292 205 56 0 0 0 0 0 0 0 0 0 0 0 0 0 0 0 0 2 2 11 16 7 10 11 5 2 0 0 0 0 1 0 0 0
0 0 0 0 0 0 0 0 0 0 0 0 0 0 0 0 0 0 0 0 0 0 0 0 0 153 231 273 233 135 0 0 0 0 0 0 0 0 0 0 0 0 0 0 0 3 6 10 10 14 4 3 3 0 0 0 0 1 1 0 0 0 0
0 0 0 0 0 0 0 0 0 0 0 0 0 0 0 0 0 0 0 0 0 0 0 0 0 127 182 206 187 140 86 0 0 0 0 0 0 0 0 0 0 0 2 0 0 0 2 9 7 1 0 0 1 1 0 0 0 0 0 0 0 0 0
5 0 0 0 0 0 0 0 0 0 0 0 0 0 0 0 0 0 0 0 0 0 0 0 0 0 98 144 139 126 118 76 0 0 0 0 0 0 0 0 0 0 0 1 0 4 9 1 0 0 1 2 2 0 0 0 0 0 0 0 0 0 0
10 11 8 14 6 6 0 0 0 0 0 0 0 0 0 0 0 0 0 0 0 0 0 0 0 0 68 132 141 143 127 46 34 42 1 0 0 0 0 0 0 0 0 0 0 0 0 6 7 4 3 2 0 0 0 0 0 0 0 0 0 0 0
7 12 14 10 7 9 3 9 8 4 0 0 0 0 0 0 1 0 0 0 0 0 0 0 0 0 0 42 113 108 102 31 54 28 11 8 7 7 0 0 0 0 0 2 5 2 3 6 6 3 1 0 0 0 0 0 0 0 0 0 0 0 0
1 6 10 13 12 17 24 22 21 16 2 2 6 8 6 5 1 0 0 0 0 0 0 0 0 0 0 0 0 0 0 7 37 13 4 0 1 2 2 1 0 0 0 0 0 0 1 3 2 1 1 1 0 0 0 0 0 0 0 0 0 0 0

ECMWFFLT1_con_mucape_033.txt.gz
CAPE
550 238 203 112 58 2 0 0 0 0 3 200 572 485 745 911 960 909 917 964 849 711 681 632 399 281 369 347 404 556 636 688 700 949 815 663 614 776 600 750 489 405 667 699 1075 1098 935 230 0 0 0 0 0 88 140 422 796 796 1170 1104 905 1256 1691
418 245 149 58 9 2 0 0 10 0 11 0 5 126 194 396 530 846 872 908 897 787 506 465 338 358 442 563 600 598 571 609 608 745 701 612 464 435 480 401 435 372 278 421 634 935 732 268 2 0 0 0 0 9 11 190 280 334 256 238 514 774 750
305 204 158 100 34 48 5 0 21 55 34 31 0 0 2 15 119 241 392 497 680 510 286 312 295 413 513 505 598 671 642 674 599 761 585 425 489 385 574 414 306 222 297 163 184 305 445 173 7 0 0 6 0 2 0 0 178 197 278 324 253 165 6
405 278 171 97 32 60 1 2 24 4 12 6 4 0 0 0 11 51 187 216 264 108 28 78 349 245 266 245 132 260 383 605 473 267 166 317 250 223 281 334 588 385 378 141 36 0 0 0 3 1 5 0 0 7 0 0 0 0 0 0 0 0 0
538 469 345 178 103 60 18 0 0 0 0 0 1 0 0 0 4 13 6 22 9 30 20 24 24 42 16 8 14 15 6 4 18 105 260 97 13 28 113 86 68 36 0 0 0 5 0 0 0 0 7 7 5 0 1 0 0 0 0 0 0 0 0
647 601 423 247 171 92 30 0 0 0 0 0 0 0 0 0 0 2 28 31 6 3 1 1 0 0 0 0 0 0 1 4 8 5 0 1 2 0 0 0 4 0 0 0 0 0 127 21 0 0 0 0 2 3 0 0 0 0 0 0 0 0 0
654 660 396 164 178 105 52 27 2 5 2 3 0 0 0 0 0 0 0 0 0 0 0 0 0 0 0 0 0 0 0 0 0 0 0 0 0 0 0 0 0 0 0 0 0 0 0 9 4 0 0 0 0 0 0 0 0 0 0 0 0 0 0
496 390 299 181 87 50 50 33 10 25 15 0 0 0 0 0 0 0 0 0 0 0 0 0 0 0 0 0 0 0 0 0 0 0 0 0 0 0 0 0 0 0 0 0 0 0 0 0 0 0 0 0 0 0 0 0 0 0 0 0 0 0 0
239 334 143 32 89 148 49 25 17 18 9 2 2 2 0 0 0 0 0 0 0 0 0 0 0 0 0 0 0 0 0 0 0 0 0 0 0 0 0 0 0 0 0 0 0 0 0 0 0 0 0 0 0 0 0 0 0 0 0 0 0 0 0
309 402 248 113 48 31 9 49 90 43 21 23 9 28 0 0 0 0 0 0 0 0 0 0 0 0 0 0 0 0 0 0 0 0 0 0 0 0 0 0 0 0 0 0 0 0 0 0 0 0 0 0 0 0 0 0 0 0 0 0 0 0 0
360 444 226 201 176 51 20 0 0 2 37 21 55 21 21 1 37 0 0 0 0 0 0 0 0 0 0 0 0 0 0 0 0 0 0 0 0 0 0 0 0 0 0 0 0 0 0 0 0 0 0 0 0 0 0 0 0 0 0 0 0 0 0
187 364 335 376 193 130 3 0 0 85 66 4 24 53 2 0 1 0 10 1 3 0 0 0 0 0 0 0 0 0 0 0 0 0 0 0 0 0 0 0 0 0 0 0 0 0 0 0 0 0 0 0 0 0 0 0 0 0 0 0 0 0 0
216 150 279 278 264 239 10 0 0 12 168 37 102 148 47 0 1 0 0 0 0 0 0 0 0 0 0 0 0 0 0 0 0 0 0 0 0 0 0 0 0 0 0 0 0 0 0 0 0 0 0 0 0 0 0 0 0 0 0 0 0 0 0
281 212 219 318 401 382 99 0 14 31 1 63 37 60 32 4 0 0 0 0 0 0 0 0 0 0 0 0 0 0 0 0 0 0 0 0 0 0 0 0 0 0 0 0 0 0 0 0 0 0 0 0 0 0 0 0 0 0 0 0 0 0 0
296 266 362 351 506 479 116 5 0 0 23 7 27 26 25 32 4 0 0 0 0 0 0 0 0 0 0 0 0 0 0 0 0 0 0 0 0 0 0 0 0 0 0 0 0 0 0 0 0 0 0 0 0 0 0 0 0 0 0 0 0 0 0
422 348 477 201 495 453 273 48 0 18 8 15 15 39 60 59 14 2 0 0 0 0 0 0 0 0 0 0 0 0 0 0 0 0 0 0 0 0 0 0 0 0 0 0 0 0 0 0 0 0 0 0 0 0 0 0 0 0 0 0 0 0 0
599 531 489 508 113 82 453 294 90 73 50 100 50 73 127 103 60 57 85 64 67 43 8 7 1 0 0 0 0 0 0 0 0 0 0 0 0 0 0 0 0 0 0 0 0 0 0 0 0 0 0 0 0 0 0 0 0 0 0 0 0 0 0
649 646 737 657 689 298 343 507 274 130 207 265 320 252 167 110 174 118 232 148 138 84 58 40 24 34 111 43 0 0 0 0 0 0 0 0 0 0 0 0 0 0 0 0 0 0 0 0 0 0 0 0 0 0 0 0 0 0 0 0 0 0 0
731 713 677 670 708 627 635 560 385 358 324 377 358 321 213 286 273 248 129 115 149 160 162 172 101 71 32 7 4 0 0 2 0 4 2 22 5 27 0 0 0 0 0 0 0 0 0 0 0 0 0 0 0 0 0 0 0 0 0 0 0 0 0
796 801 782 731 684 619 561 672 602 505 517 554 511 444 114 23 116 170 260 299 249 158 110 103 189 182 71 19 0 0 2 0 0 0 1 0 2 0 14 21 0 0 0 0 0 0 0 0 0 0 0 0 0 0 0 0 0 0 0 0 0 0 0
858 766 785 568 521 572 609 665 622 627 492 448 478 413 265 249 291 239 96 355 395 259 206 259 336 325 205 132 64 37 24 20 0 0 0 0 95 0 42 0 35 0 0 0 0 2 0 0 0 0 0 0 0 0 0 0 0 0 0 0 0 0 0
703 432 327 417 428 438 460 459 41 12 234 608 579 483 454 397 411 212 256 432 315 320 354 414 476 575 503 258 240 251 209 181 56 7 4 0 22 65 173 153 114 0 0 0 1 0 0 0 0 0 0 0 0 0 0 0 0 0 0 0 0 0 0
716 601 359 336 403 426 408 414 398 192 175 534 629 643 622 661 649 572 309 321 289 11 144 324 81 0 1 158 225 81 70 82 68 74 65 102 97 17 2 3 0 62 0 0 0 0 0 0 0 0 0 2 0 0 1 2 1 0 0 0 0 0 0
557 565 532 454 358 331 414 50 56 48 26 569 52 236 470 423 454 436 5 168 324 397 453 346 0 0 228 333 356 357 328 316 277 244 203 185 179 185 184 154 60 165 158 97 0 0 0 0 2 6 0 0 0 0 0 2 2 0 0 0 0 0 0
496 464 450 463 441 421 442 447 132 333 502 244 262 183 290 295 395 24 29 231 543 601 580 14 357 472 439 426 443 466 420 400 384 379 359 359 335 307 257 206 185 185 0 0 0 57 0 6 0 0 6 7 13 5 3 5 3 6 6 5 0 0 0
566 521 462 402 343 397 432 431 556 114 486 533 326 325 403 368 18 32 268 404 432 435 590 363 292 362 445 484 457 427 388 509 482 503 379 359 359 375 377 373 386 372 267 204 133 14 0 0 6 0 14 27 17 20 9 12 15 7 7 4 7 4 1
448 427 542 429 372 382 370 214 299 59 230 73 199 23 7 27 69 56 316 398 416 340 376 374 417 496 490 442 386 358 363 787 827 690 511 387 366 328 252 234 269 303 316 319 305 269 234 191 54 8 5 6 12 22 15 7 8 8 3 2 5 1 0
0 73 230 401 610 486 241 58 20 56 82 80 25 29 13 13 62 37 236 237 203 326 423 560 594 556 479 412 340 317 169 149 273 337 239 145 86 109 139 143 206 233 276 305 281 225 165 22 0 0 0 7 12 14 16 12 8 3 0 0 0 0 0
0 0 0 0 0 22 9 27 29 34 21 17 29 42 51 44 19 31 30 25 23 39 171 420 581 541 472 408 354 276 46 15 189 106 1 0 0 0 0 4 13 194 247 282 174 153 152 72 24 0 1 5 9 6 2 2 5 3 0 0 0 0 0
0 0 0 0 0 0 0 0 0 0 0 0 0 0 2 0 0 0 0 0 12 31 0 0 202 459 469 446 356 281 89 22 0 0 0 0 0 0 0 0 11 148 212 251 182 158 134 56 1 0 1 2 0 0 0 0 2 2 2 4 4 0 0
0 0 1 0 0 0 0 0 0 0 0 0 0 0 0 0 0 0 0 13 24 154 7 0 0 66 342 411 364 242 90 19 0 0 0 0 0 0 0 0 0 0 14 86 71 14 0 0 0 0 1 0 0 3 5 2 3 2 2 0 0 0 0
0 0 0 0 0 0 0 0 0 0 0 0 0 0 0 0 0 0 0 0 0 3 0 0 0 0 197 266 286 259 142 0 0 0 0 0 0 0 0 0 0 0 0 0 0 0 0 0 0 1 0 0 0 2 2 0 0 0 0 0 0 0 0
0 0 0 0 0 0 0 0 0 0 0 1 0 0 0 0 0 0 0 0 0 0 0 0 0 0 0 193 237 225 137 0 0 0 0 0 0 0 0 0 0 0 0 0 0 0 0 0 0 0 0 1 2 1 0 0 0 0 0 0 0 0 0
0 1 27 10 0 0 0 0 0 0 0 0 0 0 0 0 0 0 0 0 0 0 0 0 0 0 0 58 62 40 8 0 0 0 0 0 0 0 0 0 0 0 0 0 0 0 1 2 1 3 2 0 0 0 1 1 0 0 0 0 0 0 0
0 0 0 1 6 6 0 0 0 0 0 0 0 0 0 0 0 0 0 0 0 0 0 0 0 0 0 0 0 6 6 6 0 0 0 0 0 0 0 0 0 0 0 0 0 0 0 0 0 0 0 0 1 1 0 0 0 0 0 0 0 0 0
0 2 3 1 4 91 46 17 2 0 0 0 0 0 0 0 0 0 0 0 0 0 0 0 0 0 0 19 78 85 96 90 64 0 0 0 0 0 0 0 0 0 0 0 0 0 0 0 0 0 0 0 0 2 1 0 0 0 0 0 0 0 0
0 0 0 0 1 1 44 5 8 4 32 40 26 8 0 0 0 0 0 0 0 0 0 0 0 0 0 0 0 0 0 0 0 0 0 0 0 0 0 0 0 0 0 0 0 0 0 0 0 0 0 0 0 0 0 0 0 0 0 0 0 0 0

ECMWFFLT1_con_mucape_036.txt.gz
CAPE
735 773 670 429 184 53 59 57 73 127 201 181 188 212 260 214 259 384 562 671 420 286 249 280 356 308 318 474 562 735 785 1336 1413 1236 1150 1103 1042 1072 1003 1008 1024 1173 1352 1393 1207 724 368 193 326 266 273 212 331 533 712 1006 1027 1113 756 453 619 702 796
631 610 333 138 148 115 154 107 27 4 83 319 321 354 209 120 118 197 277 323 383 271 126 172 207 244 420 508 679 624 1082 1361 1618 1575 1446 1316 1314 1406 1117 1161 996 1115 1148 1328 1264 1230 740 617 640 642 358 186 204 141 216 314 551 503 440 456 532 575 632
666 377 175 183 201 202 183 146 75 51 23 211 390 363 170 33 87 101 95 182 293 106 93 6 60 152 212 571 1144 1306 1299 1324 1338 1388 1311 1400 1384 1330 1232 1214 1170 1084 1013 912 1102 1110 1116 855 670 548 554 435 197 13 65 282 256 176 54 57 4 28 103
795 486 310 294 222 178 128 97 50 42 123 225 216 279 232 42 24 76 202 113 96 16 0 0 46 36 132 194 240 260 516 914 1050 1121 1094 1030 988 931 1125 1129 1044 1005 977 1060 1040 910 726 568 417 161 46 31 10 0 0 0 0 0 0 23 0 0 0
857 578 383 317 222 152 120 61 0 32 101 200 170 68 64 16 0 19 23 6 14 2 0 26 72 8 25 18 22 24 58 202 321 354 418 810 1046 1087 1066 1001 902 865 850 902 727 638 537 323 344 121 2 0 0 1 0 0 0 0 0 0 0 0 0
766 418 341 251 135 60 34 8 12 12 21 49 22 0 53 5 2 27 46 5 0 0 22 18 4 4 0 0 0 0 0 0 22 69 64 243 113 89 148 129 51 124 124 160 484 682 541 437 342 144 10 6 4 2 0 0 0 0 0 0 0 0 0
874 464 208 153 76 8 0 8 0 0 3 6 12 8 0 0 0 0 0 0 0 0 0 0 1 0 1 0 0 0 0 0 0 0 0 2 4 6 4 0 0 0 0 0 0 31 321 235 169 187 136 42 14 0 0 0 0 0 0 0 0 0 0
860 450 156 104 59 6 0 0 0 0 2 1 3 9 0 0 0 0 0 0 0 0 0 0 0 0 0 0 0 0 0 0 0 0 0 0 0 0 0 0 0 0 0 0 0 0 0 7 33 20 12 4 2 0 0 0 0 0 0 0 0 0 0
581 385 156 91 75 33 0 0 0 0 2 6 6 13 2 0 0 0 0 0 0 0 0 0 0 0 0 0 0 0 0 0 0 0 0 0 0 0 0 0 0 0 0 0 0 0 0 0 5 9 0 0 0 0 0 0 0 0 0 0 0 0 0
830 447 171 244 172 146 10 1 1 0 7 12 33 33 4 0 0 0 0 0 0 0 0 0 0 0 0 0 0 0 0 0 0 0 0 0 0 0 0 0 0 0 0 0 0 0 0 0 0 0 1 0 0 0 0 0 0 0 0 0 0 0 0
890 567 333 459 372 290 149 25 35 8 15 12 51 37 21 1 0 0 0 0 0 0 0 0 0 0 0 0 0 0 0 0 0 0 0 0 0 0 0 0 0 0 0 0 0 0 0 0 0 0 0 1 0 0 0 0 0 0 0 0 0 0 0
1001 766 331 326 268 440 358 480 363 136 50 26 4 38 23 2 2 2 0 0 0 0 0 0 0 0 0 0 0 0 0 0 0 0 0 0 0 0 0 0 0 0 0 0 0 0 0 0 0 0 0 0 0 4 0 0 0 0 0 0 0 0 0
1115 743 323 25 36 462 202 18 75 352 216 18 11 14 4 2 3 12 1 0 2 0 0 0 0 0 0 0 0 0 0 0 0 0 0 0 0 0 0 0 0 0 0 0 0 0 0 0 0 0 0 0 0 0 0 0 0 0 0 0 0 0 0
1202 900 488 470 247 229 2 15 62 216 221 126 53 14 2 2 0 0 0 0 0 7 1 1 7 3 0 0 0 0 0 0 0 0 0 0 0 0 0 0 0 0 0 0 0 0 0 0 0 0 0 0 0 0 0 0 0 0 0 0 0 0 0
1384 1161 1034 753 770 452 67 217 374 426 450 438 189 49 4 30 6 0 0 0 1 5 7 27 12 12 6 15 6 0 0 0 0 0 0 0 0 0 0 0 0 0 0 0 0 0 0 0 0 0 0 0 0 0 0 0 0 0 0 0 0 0 0
1298 1384 1380 1021 596 321 64 190 411 426 430 284 275 84 111 136 28 6 3 2 1 1 0 2 20 31 32 59 34 43 45 28 12 3 0 0 0 0 0 0 0 0 0 0 0 0 0 0 0 0 0 0 0 0 0 0 0 0 0 0 0 0 0
1257 1343 1407 1058 662 713 508 159 104 447 519 415 270 229 152 179 120 181 166 170 150 120 108 142 122 101 82 65 42 60 57 58 44 46 32 1 1 0 0 0 0 0 0 0 0 0 0 0 0 0 0 0 0 0 0 0 0 0 0 0 0 0 0
981 1196 1248 1093 1096 726 953 196 23 108 525 716 559 535 444 324 319 301 454 345 394 418 392 347 332 363 458 355 195 149 133 140 172 84 108 78 8 7 3 0 3 0 0 0 0 0 0 0 0 0 0 0 0 0 0 0 0 0 0 0 0 0 0
952 1034 1091 1138 1214 1088 1210 989 720 32 91 545 662 784 736 679 560 568 545 424 480 500 468 521 538 525 543 540 442 418 462 405 294 185 130 48 4 2 10 4 0 0 0 0 0 0 0 0 0 0 0 0 0 0 0 0 0 0 0 0 0 0 0
747 824 938 968 994 885 1016 1106 984 658 423 231 656 768 827 836 913 789 710 651 640 671 692 699 685 597 568 634 616 630 771 462 342 363 454 391 192 83 43 5 3 0 0 0 0 0 0 0 0 0 0 0 0 0 0 0 0 0 0 0 0 0 0
1008 932 868 727 594 774 761 886 927 742 728 578 720 690 778 872 1000 927 892 944 846 891 916 825 720 635 538 635 648 642 641 643 516 485 584 468 421 364 202 80 58 43 24 0 0 0 0 0 0 0 0 3 0 1 0 0 0 0 0 0 0 0 0
882 910 906 968 870 637 724 812 990 922 1111 1120 950 758 865 901 1132 1032 1099 1089 1024 995 970 812 784 874 888 859 829 904 1028 972 896 912 967 923 802 672 557 411 192 85 24 0 0 0 0 0 0 0 0 0 0 0 0 0 0 0 1 0 0 0 0
871 879 859 850 859 698 732 1159 1373 1418 1372 1214 1207 1007 914 956 1042 1021 915 934 1072 1214 1108 979 1122 502 570 815 999 790 948 884 828 957 969 955 892 700 562 559 423 64 3 0 0 0 0 0 0 0 0 0 0 0 0 0 0 0 0 0 1 0 0
869 994 790 834 880 842 781 940 1269 1149 1126 1048 1072 1063 1037 938 1029 1028 943 1030 1202 1327 1204 928 0 0 0 13 740 1195 1167 1243 1220 1130 1108 1124 1078 969 1007 777 765 295 90 0 0 0 0 0 0 0 0 0 0 18 0 0 0 0 0 0 0 0 0
781 774 847 890 830 856 810 843 995 1156 1116 1130 1116 1209 1183 1114 1078 1165 1191 1092 1117 1200 1238 630 16 4 14 9 4 1069 1203 1266 1392 1383 1336 1259 1088 980 878 905 785 516 267 186 91 0 0 0 0 0 0 0 4 27 21 8 0 0 0 0 0 3 0
940 986 988 914 898 937 994 824 1046 1166 1101 696 644 635 382 830 657 798 918 863 675 733 1072 618 23 14 28 392 423 570 1413 1346 1124 1134 1057 1030 927 798 811 798 941 720 251 234 283 271 249 116 0 60 74 0 0 0 33 25 30 0 0 0 7 6 1
618 844 914 918 890 944 1062 1131 1200 1153 714 207 472 519 530 251 173 519 538 682 830 678 600 574 216 350 208 465 454 518 1174 767 527 400 375 345 445 306 352 312 325 351 293 139 135 226 318 276 0 0 0 0 0 0 0 0 0 2 0 0 0 0 0
2 83 518 938 999 993 1007 1098 1007 869 643 650 423 382 83 53 60 324 488 672 788 1047 667 372 353 416 468 523 446 372 680 370 142 104 164 383 370 469 517 495 353 272 232 295 228 203 30 267 0 0 0 0 0 0 0 0 1 4 3 5 1 3 0
0 0 0 102 450 615 743 734 721 645 489 471 417 291 341 323 289 116 244 585 721 879 472 502 481 551 570 418 466 791 350 154 50 73 86 204 182 264 313 451 358 294 320 209 11 76 217 61 0 0 0 4 0 0 0 0 2 2 0 2 0 0 0
0 0 0 0 0 24 211 319 360 324 270 264 357 288 261 338 299 311 321 506 426 620 623 573 648 567 587 371 368 498 178 61 140 115 138 137 123 119 92 100 344 265 226 51 206 244 197 0 0 0 7 5 0 0 0 0 0 0 0 0 0 0 2
0 0 0 0 0 15 147 250 286 140 161 126 102 91 94 50 24 8 9 55 122 66 485 248 583 619 528 521 496 450 161 123 207 120 78 78 34 0 0 0 0 145 22 0 26 166 180 60 0 5 0 0 0 0 0 0 0 0 0 0 0 0 0
0 0 0 2 14 46 133 162 146 143 79 48 54 14 0 0 0 0 0 18 1 127 167 2 73 226 527 531 402 751 127 187 220 139 52 9 0 0 0 0 0 0 0 0 0 0 0 0 0 1 10 4 0 0 0 0 0 0 0 0 0 0 0
0 0 0 0 5 60 71 36 59 14 8 0 0 0 0 0 0 0 0 0 27 63 98 115 0 0 13 350 409 416 201 145 289 216 68 0 0 0 0 0 0 0 0 0 0 0 0 0 0 1 0 0 0 0 0 0 0 0 0 0 0 0 0
0 0 0 4 18 4 7 20 47 12 2 0 0 0 0 0 0 0 0 0 17 270 363 150 0 0 0 0 156 82 266 154 294 188 79 0 0 0 0 0 0 0 0 0 0 0 0 0 0 0 0 0 0 0 0 0 0 0 0 0 0 0 0
0 0 0 0 6 42 34 8 41 71 7 10 12 2 4 1 0 0 1 7 109 110 0 198 36 0 0 0 52 233 212 234 100 73 32 16 1 0 0 0 0 0 0 0 0 0 0 0 0 0 0 0 0 0 0 0 0 0 0 0 0 0 0
0 0 0 0 1 15 43 78 37 30 43 138 279 354 247 116 8 51 44 49 125 119 3 0 0 0 0 0 0 0 0 62 0 153 48 34 0 0 0 0 0 0 0 0 0 0 0 0 0 0 0 0 0 0 0 0 0 0 0 0 0 0 0
0 0 1 2 3 15 26 66 162 98 67 58 37 54 6 3 6 28 64 17 9 3 0 0 0 0 0 0 0 53 90 17 1 79 43 6 0 0 0 0 0 0 0 0 0 0 0 0 0 0 0 0 0 0 0 0 0 0 0 0 0 0 0

ECMWFFLT1_con_mucape_042.txt.gz
CAPE
1262 794 910 824 251 407 345 278 443 613 340 341 554 210 440 408 547 447 531 709 583 145 470 473 497 464 499 515 836 973 1045 812 660 647 511 949 755 736 878 722 1129 1041 1016 939 870 600 393 204 214 201 204 239 296 610 643 534 562 564 513 474 547 505 317
540 571 230 9 429 317 254 227 841 352 589 532 257 324 338 239 294 354 338 198 340 141 134 153 242 389 680 1028 1176 1181 946 905 1124 964 870 946 627 886 801 717 624 764 742 574 628 428 432 237 226 174 253 407 524 492 711 548 465 640 467 366 447 392 246
527 304 197 422 446 324 590 658 472 615 440 542 641 334 473 116 351 328 165 185 107 10 74 178 250 450 536 571 746 1035 1150 1134 1247 1248 808 893 1116 828 735 836 652 773 636 448 481 647 646 574 221 152 225 231 344 498 682 573 484 481 460 404 264 37 1
523 579 492 426 495 512 417 295 472 574 732 500 371 238 166 187 256 339 157 0 25 192 57 81 152 100 458 550 490 517 573 585 648 785 1131 945 655 598 660 862 569 630 549 556 782 734 861 768 411 374 518 16 199 289 500 410 56 240 406 320 14 0 0
495 564 379 487 353 265 410 573 780 798 479 380 187 187 232 139 145 0 16 140 247 177 78 37 0 4 8 48 174 227 234 383 440 449 410 560 750 791 651 937 831 671 851 921 741 611 631 600 495 152 387 0 0 0 37 28 11 0 0 0 0 0 0
677 547 522 562 404 474 495 629 645 567 315 202 162 123 298 400 407 270 197 218 257 280 226 22 0 0 0 0 0 1 6 1 30 90 49 22 30 63 109 25 66 101 527 581 715 511 663 612 764 54 7 10 1 0 0 22 1 7 3 0 0 0 0
961 646 796 532 633 544 547 527 613 453 395 124 36 62 20 0 1 0 24 33 0 0 0 0 0 0 0 0 0 0 0 0 2 1 0 0 1 0 0 0 0 0 0 29 414 375 457 702 93 42 10 12 1 0 0 0 0 0 0 0 0 0 0
1022 814 876 822 613 591 417 388 711 566 163 7 16 14 0 0 0 0 0 0 0 0 0 0 0 0 0 0 0 0 0 0 0 0 0 0 0 0 0 0 0 0 0 0 0 0 48 84 191 148 15 39 68 32 1 0 0 0 0 0 0 0 0
568 746 786 451 657 655 462 614 788 557 325 107 4 1 0 0 0 0 0 0 0 0 0 0 0 0 0 0 0 0 0 0 0 0 0 0 0 0 0 0 0 0 0 0 0 0 0 8 22 165 68 54 1 2 1 0 0 0 0 0 0 0 0
537 674 616 458 630 600 625 828 530 524 321 59 2 0 0 0 0 0 0 0 0 0 0 0 0 0 0 0 0 0 0 0 0 0 0 0 0 0 0 0 0 0 0 0 0 0 0 0 0 0 4 16 4 43 4 0 0 0 0 0 0 0 0
524 758 516 556 517 564 549 518 634 379 205 59 3 0 5 0 0 0 0 0 0 0 0 0 0 0 0 0 0 0 0 0 0 0 0 0 0 0 0 0 0 0 0 0 0 0 0 0 0 0 0 1 5 14 10 0 0 0 0 0 0 0 0
589 564 507 500 347 380 291 384 439 398 270 39 5 1 0 0 0 0 0 0 0 0 0 0 0 0 0 0 0 0 0 0 0 0 0 0 0 0 0 0 0 0 0 0 0 0 0 0 0 0 0 1 6 18 1 0 0 0 0 0 0 0 0
491 321 462 474 363 258 199 304 420 354 220 30 14 0 0 0 4 0 0 0 0 0 0 0 0 0 0 0 0 0 0 0 0 0 0 0 0 0 0 0 0 0 0 0 0 0 0 0 0 0 0 0 0 14 0 0 0 0 0 0 0 0 0
754 409 459 454 387 259 289 99 281 298 28 129 16 5 0 0 0 2 0 0 0 4 0 0 5 1 0 1 0 0 0 0 0 0 0 0 0 0 0 0 0 0 0 0 0 0 0 0 0 0 0 0 0 0 0 0 0 0 0 0 0 0 0
1100 405 387 458 429 667 628 449 472 60 30 137 14 4 0 10 3 1 0 0 2 0 0 0 0 4 0 0 0 0 0 0 0 0 0 0 0 0 0 0 0 0 0 0 0 0 0 0 0 0 0 0 0 0 0 0 0 0 0 0 0 0 0
1205 540 420 347 603 277 473 590 370 299 134 165 59 23 6 53 15 1 4 2 0 0 0 13 100 37 6 0 0 0 15 0 5 0 0 0 0 0 0 0 0 0 0 0 2 0 8 0 13 0 0 0 0 0 0 0 0 0 0 0 0 0 0
1159 884 220 290 603 118 179 193 435 465 327 15 3 108 110 1 8 15 15 3 5 3 6 136 176 66 3 0 53 23 62 62 0 6 0 0 1 0 26 0 0 0 0 0 0 0 0 0 1 0 0 0 0 0 0 0 0 0 0 0 0 0 0
1246 1085 533 295 621 272 254 161 252 526 837 399 44 143 76 0 10 0 102 2 2 31 53 44 79 176 279 283 146 258 180 55 147 55 187 272 82 96 2 49 1 0 0 0 0 2 0 0 0 0 0 0 0 0 0 0 0 0 2 7 0 0 0
1595 1446 1256 928 708 260 203 302 367 480 497 274 374 325 196 2 8 5 0 0 1 27 37 81 109 167 211 354 453 389 337 385 251 236 262 294 119 216 186 214 267 31 0 91 123 94 128 20 0 0 0 0 0 0 0 0 0 0 0 0 0 0 0
1136 900 808 675 306 429 237 187 354 190 330 251 331 323 201 110 116 64 0 5 28 11 65 125 216 362 442 421 505 491 495 666 603 524 483 331 291 375 262 273 271 313 104 216 258 186 38 16 0 0 0 0 0 0 0 0 0 0 0 0 2 0 0
979 838 928 761 455 250 320 686 220 112 134 410 337 159 186 149 303 85 87 105 56 114 197 220 77 155 444 453 590 637 669 811 761 707 636 493 514 412 285 322 370 308 280 137 305 156 6 9 0 0 0 0 0 0 0 0 0 0 0 0 1 0 2
905 874 806 710 525 390 369 571 536 980 597 770 1255 871 454 161 218 131 101 272 319 280 339 142 100 65 170 368 256 411 550 529 659 398 213 371 338 562 648 363 140 246 321 42 0 108 13 22 0 0 0 0 0 0 0 0 0 0 0 0 27 1 1
1128 960 904 798 640 590 628 855 973 588 764 1054 1018 847 494 393 679 593 456 508 503 135 369 349 201 0 5 475 576 516 491 567 387 56 20 82 324 350 426 311 45 88 1 0 0 0 0 0 0 0 0 0 0 0 0 0 0 0 0 0 0 0 0
818 1062 1089 1065 1042 944 1025 1051 807 820 873 999 601 593 541 576 811 607 605 758 458 339 326 229 8 0 293 379 416 705 815 324 348 277 338 406 26 111 223 324 234 87 118 264 0 0 0 0 0 0 0 0 0 0 0 0 0 0 0 0 0 0 0
977 1030 1133 846 1034 1039 991 1049 943 866 1152 1003 859 799 612 599 621 656 741 810 660 544 416 230 0 0 335 410 411 461 454 427 343 337 236 421 299 170 86 156 261 328 259 356 275 34 0 0 0 0 0 0 0 0 0 0 0 0 0 0 0 0 0
654 786 839 775 1061 1195 1017 1043 954 982 1132 1020 894 716 740 641 514 708 928 961 732 543 516 404 345 0 312 397 437 489 421 372 452 254 184 130 184 286 407 337 373 286 264 339 299 222 90 0 0 0 0 0 0 0 0 0 0 0 0 0 0 0 0
630 748 788 817 887 879 739 692 1040 1048 913 743 723 767 672 600 589 696 1015 1086 1072 851 809 564 233 0 422 447 449 452 329 638 386 467 330 494 561 389 462 296 140 71 224 402 366 209 0 0 0 0 0 0 0 0 0 0 0 0 0 0 0 0 0
0 8 373 685 771 840 953 1152 820 911 816 767 691 667 683 756 760 736 892 897 905 1081 812 609 548 521 556 556 538 400 302 724 607 360 386 178 135 3 191 216 230 191 290 372 349 364 182 0 0 91 30 0 0 0 0 0 0 0 0 0 0 0 0
2 0 0 0 4 94 737 1107 1000 875 890 786 647 713 717 720 608 546 572 770 1005 834 727 763 706 581 495 460 433 325 270 589 588 479 306 284 6 4 41 138 48 64 487 433 296 65 37 0 0 10 43 0 0 0 0 0 0 0 0 0 0 0 0
0 0 0 4 0 2 12 162 533 751 778 726 555 546 593 607 549 490 566 782 869 792 763 687 625 576 494 442 426 298 344 522 608 487 298 126 55 4 0 0 276 259 614 470 162 0 0 0 0 0 0 0 0 0 0 0 0 0 0 0 0 0 0
0 0 0 0 10 66 56 25 76 203 354 472 548 527 546 568 550 547 611 732 696 782 771 723 695 598 434 336 345 342 402 708 775 542 102 25 0 0 0 0 89 267 394 333 156 0 0 1 8 0 0 0 0 0 0 0 0 0 0 0 0 0 0
0 0 0 3 16 16 56 61 48 54 134 159 207 348 311 366 394 437 526 590 609 634 782 711 498 165 0 212 375 439 523 715 428 14 7 0 0 0 0 0 0 0 0 0 0 0 0 0 0 0 0 0 0 0 0 0 0 0 0 0 0 0 0
0 0 0 0 0 0 0 1 23 107 167 57 38 63 123 85 234 275 300 432 693 665 847 702 347 0 189 418 508 519 340 356 91 50 27 0 0 0 0 0 0 0 0 0 0 0 0 0 0 0 34 0 0 1 0 0 0 0 0 0 0 0 0
0 0 0 0 0 0 0 0 15 43 65 44 42 83 162 106 168 184 160 280 691 537 881 727 298 23 293 486 543 510 259 342 360 119 25 0 0 0 0 0 0 0 0 0 0 0 0 0 0 0 0 0 0 0 0 0 0 0 0 0 0 0 0
0 0 0 0 0 0 0 0 0 6 8 29 101 134 130 118 46 65 90 157 138 477 516 680 1 172 409 576 594 552 372 254 324 146 16 145 0 0 0 0 0 0 0 0 0 0 0 0 0 0 0 0 0 0 0 0 0 0 0 0 0 0 0
0 0 0 0 0 0 0 0 0 0 0 5 49 114 146 113 83 64 113 79 1 68 312 363 200 189 497 686 661 574 480 310 330 85 256 7 14 0 0 0 0 0 0 0 0 0 0 0 0 0 0 0 0 0 0 0 0 0 0 0 0 0 0
0 0 0 0 0 0 0 0 0 0 0 1 15 40 51 52 64 54 60 47 4 81 224 50 0 0 248 500 582 595 588 479 344 247 149 52 0 0 0 0 0 0 0 0 0 0 0 0 0 0 0 0 0 0 0 0 0 0 0 0 0 0 0

ECMWFFLT1_con_mucape_045.txt.gz
CAPE
77 42 0 0 0 0 0 0 16 1 2 1 24 129 120 151 42 17 193 332 381 368 199 43 167 393 501 556 500 626 771 554 576 525 661 707 574 462 709 722 657 710 604 308 65 0 97 96 13 17 310 445 486 439 417 451 374 289 256 249 176 42 0
20 0 0 0 0 0 0 8 27 16 30 22 82 37 27 76 63 27 0 0 12 44 62 43 400 497 670 628 669 688 718 753 511 425 550 615 592 500 541 612 714 644 450 424 256 177 123 76 49 222 276 372 472 533 488 418 353 353 340 220 49 12 0
0 0 0 0 0 0 18 7 0 0 0 0 0 0 10 32 5 0 0 0 0 10 26 245 328 374 612 729 764 798 861 892 640 516 732 637 514 481 484 326 421 397 282 412 413 212 48 0 159 230 225 328 328 404 438 404 351 279 57 0 0 0 0
236 84 0 0 18 1 0 0 5 10 0 0 0 0 0 0 0 0 0 0 0 36 7 9 33 142 182 351 374 432 523 571 500 536 632 587 459 472 482 452 388 265 59 379 486 246 28 0 1 200 203 244 288 422 508 419 262 147 6 0 0 0 0
81 0 0 0 12 0 0 13 12 0 0 0 0 0 0 0 0 0 0 0 0 0 0 0 0 0 0 0 0 125 288 260 486 495 405 372 398 484 556 474 201 322 409 409 424 448 33 4 120 164 125 169 300 340 375 360 296 157 0 0 0 0 0
0 0 0 0 1 0 12 38 0 0 0 0 0 0 0 0 0 0 0 0 0 0 0 0 0 0 0 0 0 0 0 0 0 0 0 0 29 370 432 461 428 527 631 489 434 363 197 135 96 9 15 190 153 38 353 314 209 0 0 0 0 0 0
0 0 0 0 0 0 16 5 0 0 0 0 0 0 0 0 0 0 0 0 0 0 0 0 0 0 0 0 0 0 0 0 0 0 0 0 0 0 0 0 0 31 541 341 124 266 244 202 131 1 0 0 0 0 120 0 0 0 0 0 0 0 0
0 0 0 0 4 0 8 1 0 0 0 0 0 0 0 0 0 0 0 0 0 0 0 0 0 0 0 0 0 0 0 0 0 0 0 0 0 0 0 0 0 0 0 0 0 166 249 188 1 0 0 0 0 0 0 0 0 0 0 0 0 0 0
0 3 0 0 0 0 0 2 0 0 0 0 0 0 0 0 0 0 0 0 0 0 0 0 0 0 0 0 0 0 0 0 0 0 0 0 0 0 0 0 0 0 0 0 0 0 0 73 5 0 0 0 0 0 0 0 0 0 0 0 0 0 0
0 12 0 0 0 0 0 1 0 0 0 0 0 0 0 0 0 0 0 0 0 0 0 0 0 0 0 0 0 0 0 0 0 0 0 0 0 0 0 0 0 0 0 0 0 0 0 0 0 0 0 0 0 0 0 0 0 0 0 0 0 0 0
0 1 0 0 0 0 3 0 0 0 0 0 0 0 0 0 0 0 0 0 0 0 0 0 0 0 0 0 0 0 0 0 0 0 0 0 0 0 0 0 0 0 0 0 0 0 0 0 0 0 0 0 0 0 0 0 0 0 0 0 0 0 0
8 0 0 0 0 0 0 0 0 0 0 0 0 0 0 0 0 0 0 0 0 0 0 0 0 0 0 0 0 0 0 0 0 0 0 0 0 0 0 0 0 0 0 0 0 0 0 0 0 0 0 0 0 0 0 0 0 0 0 0 0 0 0
4 0 0 0 0 0 0 0 0 0 0 0 0 0 0 0 0 0 0 0 0 0 0 0 0 0 0 0 0 0 0 0 0 0 0 0 0 0 0 0 0 0 0 0 0 0 0 0 0 0 0 0 0 0 0 0 0 0 0 0 0 0 0
0 0 0 0 0 0 0 0 0 0 0 0 0 0 0 0 0 0 0 0 0 0 0 0 0 0 0 0 0 0 0 0 0 0 0 0 0 0 0 0 0 0 0 0 0 0 0 0 0 0 0 0 0 0 0 0 0 0 0 0 0 0 0
0 1 2 0 2 1 0 0 0 0 0 0 0 0 0 0 0 0 0 0 0 0 0 0 0 0 0 0 0 0 0 0 0 0 0 0 0 0 0 0 0 0 0 0 0 0 0 0 0 0 0 0 0 0 0 0 0 0 0 0 0 0 0
19 10 18 30 47 19 6 1 0 0 0 0 0 0 0 0 0 0 0 0 0 0 0 0 0 0 0 0 0 0 0 0 0 0 0 0 0 0 0 0 0 0 0 0 0 0 0 0 0 0 0 0 0 0 0 0 0 0 0 0 0 0 0
259 83 120 160 135 72 28 37 0 0 0 0 0 0 0 0 0 0 0 0 0 0 0 0 0 0 0 0 0 0 0 0 0 0 0 0 0 0 0 0 0 0 0 0 0 0 0 0 0 0 0 0 0 0 0 0 0 0 0 0 0 0 0
317 161 216 237 218 131 122 67 16 0 1 0 0 0 0 0 0 0 0 0 0 0 0 0 0 0 0 0 0 0 0 0 0 0 0 0 0 0 0 0 0 0 0 0 0 0 0 0 0 0 0 0 0 0 0 0 0 0 0 0 0 0 0
288 171 226 227 229 206 155 67 72 42 139 0 0 0 0 0 0 0 0 0 0 0 0 0 0 0 0 0 0 0 0 0 0 2 0 0 0 0 0 0 0 0 0 0 0 0 0 0 0 0 0 0 0 0 0 0 0 0 0 0 0 0 0
264 225 274 264 210 224 192 122 31 129 370 0 0 0 0 0 0 0 0 0 0 0 0 0 0 0 0 13 34 0 48 0 37 85 3 0 0 0 0 0 0 0 0 0 0 0 0 0 0 0 0 0 0 0 0 0 0 0 0 0 0 0 0
364 230 244 310 311 247 180 187 27 171 275 5 16 8 0 0 0 0 0 0 0 0 0 0 14 44 59 49 175 145 337 292 76 46 13 0 33 44 2 2 0 0 0 0 0 0 0 0 0 0 0 0 0 0 0 0 0 0 0 0 0 0 0
536 441 342 410 426 314 266 225 351 393 482 445 339 104 62 69 14 0 0 0 2 0 0 0 0 0 10 282 318 356 312 334 368 348 324 176 68 193 0 0 0 0 3 2 0 0 0 0 0 0 0 0 0 0 0 0 0 0 0 0 0 0 0
650 594 540 504 446 411 314 450 499 521 719 720 486 370 155 105 60 87 8 0 1 4 6 24 0 0 0 189 426 330 308 320 353 331 193 2 0 25 297 158 29 127 0 0 0 0 0 0 0 0 0 0 0 0 0 0 0 0 0 0 0 0 0
559 604 605 621 601 441 330 625 454 513 571 646 505 434 42 128 271 99 32 20 31 44 26 80 0 0 0 0 347 517 375 311 289 326 242 0 0 0 0 15 113 1 0 0 0 0 0 0 0 0 0 0 0 0 0 0 0 0 0 0 0 0 0
499 517 461 402 346 370 487 717 611 680 727 681 537 473 296 211 187 257 147 82 41 18 12 14 0 0 0 0 193 416 498 498 456 452 420 178 0 0 0 0 0 0 0 0 0 0 0 0 0 0 0 0 0 0 0 0 0 0 0 0 0 0 0
380 365 373 93 263 533 769 857 849 763 890 817 711 610 486 296 256 445 474 305 130 86 54 0 0 0 0 0 144 335 424 482 463 435 413 366 113 0 0 0 0 0 35 17 0 0 279 170 0 0 0 0 0 0 0 0 0 0 0 0 0 0 0
335 299 15 100 22 474 472 788 877 768 881 893 810 702 576 527 433 253 517 613 560 513 486 302 259 241 222 338 312 151 4 0 0 338 370 338 141 0 0 0 0 0 0 11 0 239 318 257 95 0 0 0 2 70 0 0 0 0 0 0 0 0 0
102 0 298 488 471 453 482 771 795 868 912 854 762 636 556 534 522 456 453 645 762 785 721 677 616 549 450 360 0 0 0 0 0 0 0 0 0 0 0 0 0 0 0 0 0 255 327 32 0 0 154 163 140 125 90 13 0 0 0 0 0 0 0
0 0 0 0 0 416 415 582 702 784 756 691 642 659 658 631 606 555 532 538 680 820 927 888 802 672 535 360 0 0 0 145 0 0 0 0 0 0 0 0 0 0 0 0 56 349 318 0 0 0 0 185 173 115 75 3 0 0 0 0 0 0 0
0 0 0 0 0 0 0 349 614 702 684 694 728 704 659 592 553 578 577 524 502 657 822 905 891 827 716 574 532 491 457 426 464 342 6 0 0 0 0 0 1 0 2 12 296 380 356 75 0 0 0 0 0 91 0 0 0 0 0 0 0 0 0
0 0 0 0 0 0 0 0 0 355 525 565 667 630 575 456 435 444 458 431 345 400 650 825 872 848 774 676 587 522 461 381 282 439 298 0 0 0 0 3 0 5 2 219 419 442 322 100 0 0 0 0 0 0 0 0 0 0 0 0 0 0 0
0 0 0 0 0 0 0 0 0 0 0 0 0 358 405 430 423 370 363 370 363 424 580 752 800 758 698 689 665 622 493 405 295 437 347 0 0 0 0 0 0 1 3 252 492 341 0 0 0 0 0 0 0 0 0 0 0 0 0 0 0 0 0
0 0 0 0 0 0 0 0 0 0 0 0 0 0 9 419 427 392 360 309 264 345 464 638 744 705 659 646 637 558 401 400 375 468 365 0 0 0 0 0 0 0 0 411 504 157 0 0 0 0 0 0 0 0 0 0 0 0 0 0 0 0 0
0 0 0 0 0 0 0 0 0 0 0 0 0 0 0 0 0 168 342 322 293 365 419 513 593 593 596 523 328 251 328 434 500 326 77 0 0 0 0 0 15 346 432 559 412 205 0 0 0 0 0 0 0 0 0 0 0 0 0 0 0 0 0
0 0 0 0 0 0 0 0 0 0 0 0 0 0 0 0 0 0 23 201 241 299 371 468 467 542 576 362 179 268 443 494 406 0 0 0 0 0 0 0 1 98 107 0 123 16 0 46 7 0 0 0 0 0 0 0 0 0 0 0 0 0 0
0 0 0 0 0 0 0 0 0 0 0 0 0 0 0 0 0 0 0 0 54 197 307 420 445 462 442 256 208 349 570 587 397 0 0 0 0 106 8 0 0 0 0 0 0 0 18 26 47 0 0 0 0 0 0 0 0 0 0 0 0 0 0
0 0 0 0 0 0 0 0 0 0 0 0 0 0 0 0 0 0 0 0 0 43 229 271 380 376 326 302 236 316 499 663 464 190 60 46 148 150 43 1 0 0 0 0 0 0 0 0 40 30 10 12 14 6 0 0 0 0 0 0 0 0 0

ECMWFFLT1_con_mucape_048.txt.gz
CAPE
262 61 278 297 0 0 0 0 0 0 0 0 0 0 0 4 101 332 320 496 540 339 280 285 406 618 604 636 695 688 468 392 359 422 570 497 321 325 498 463 142 35 34 0 0 0 0 2 201 220 305 347 285 229 243 231 225 204 203 235 274 257 243
118 268 320 106 0 0 137 0 0 0 0 0 0 0 0 0 0 0 0 0 0 2 14 3 360 393 341 342 400 460 426 280 333 478 587 456 307 346 478 514 388 363 237 210 0 0 0 9 249 303 238 323 325 284 212 226 240 164 101 84 64 34 0
88 0 0 0 0 46 148 0 0 0 0 0 0 0 0 0 0 0 0 0 0 1 15 367 412 433 396 411 474 544 493 385 298 370 411 303 331 371 517 511 378 237 3 18 17 0 0 0 183 270 222 226 310 296 270 226 115 75 69 0 0 0 0
0 0 0 0 0 0 0 0 0 0 0 0 0 0 0 0 0 0 0 0 0 20 0 408 433 408 426 497 530 450 283 291 387 393 317 338 317 334 347 414 350 2 16 14 7 0 0 0 80 129 131 138 207 208 256 110 58 43 0 0 0 0 0
0 0 0 0 0 0 0 0 0 0 0 0 0 0 0 0 0 0 0 0 0 0 0 144 266 296 340 357 371 349 332 308 278 295 313 328 307 289 256 256 297 314 265 58 1 107 0 0 20 18 167 137 138 157 149 85 0 0 0 0 0 0 0
0 0 0 0 0 0 0 0 0 0 0 0 0 0 0 0 0 0 0 0 0 0 0 0 0 0 0 0 0 18 16 78 151 184 207 214 222 230 165 187 180 181 242 186 11 71 0 0 0 4 11 3 5 71 120 87 0 0 0 0 0 0 0
201 88 0 0 76 111 0 0 0 0 0 0 0 0 0 0 0 0 0 0 0 0 0 0 0 0 0 0 0 0 0 0 0 0 0 0 0 0 0 177 315 281 278 168 133 119 73 77 71 13 11 0 7 115 140 26 0 0 0 0 0 0 0
269 0 0 0 143 138 0 0 0 0 0 0 0 0 0 0 0 0 0 0 0 0 0 0 0 0 0 0 0 0 0 0 0 0 0 0 0 0 0 0 0 0 231 312 206 112 148 175 177 0 0 0 88 157 96 0 0 0 0 0 0 0 0
164 0 42 140 83 4 0 0 0 0 0 0 0 0 0 0 0 0 0 0 0 0 0 0 0 0 0 0 0 0 0 0 0 0 0 0 0 0 0 0 0 64 228 272 97 81 142 0 0 0 0 0 3 0 0 0 0 0 0 0 0 0 0
112 0 0 0 87 194 213 62 0 0 0 0 0 0 0 0 0 0 0 0 0 0 0 0 0 0 0 0 0 0 0 0 0 0 0 0 0 0 0 0 0 0 0 43 149 173 194 86 0 0 0 0 0 0 0 0 0 0 0 0 0 0 0
93 2 0 0 141 270 227 176 0 0 0 0 0 0 0 0 0 0 0 0 0 0 0 0 0 0 0 0 0 0 0 0 0 0 0 0 0 0 0 0 0 0 0 0 0 0 28 45 0 0 0 0 0 0 0 0 0 0 0 0 0 0 0
80 0 0 0 0 272 210 184 28 0 0 0 0 0 0 0 0 0 0 0 0 0 0 0 0 0 0 0 0 0 0 0 0 0 0 0 0 0 0 0 0 0 0 0 0 0 0 0 0 0 0 0 0 0 0 0 0 0 0 0 0 0 0
0 0 0 0 0 107 160 175 15 0 0 0 0 0 0 0 0 0 0 0 0 0 0 0 0 0 0 0 0 0 0 0 0 0 0 0 0 0 0 0 0 0 0 0 0 0 0 0 0 0 0 0 0 0 0 0 0 0 0 0 0 0 0
0 0 0 0 0 115 152 134 5 0 0 0 0 0 0 0 0 0 0 0 0 0 0 0 0 0 0 0 0 0 0 0 0 0 0 0 0 0 0 0 0 0 0 0 0 0 0 0 0 0 0 0 0 0 0 0 0 0 0 0 0 0 0
0 6 128 0 4 146 116 99 0 0 0 0 0 0 0 0 0 0 0 0 0 0 0 0 0 0 0 0 0 0 0 0 0 0 0 0 0 0 0 0 0 0 0 0 0 0 0 0 0 0 0 0 0 0 0 0 0 0 0 0 0 0 0
0 0 0 0 0 0 0 0 0 0 0 0 0 0 0 0 0 0 0 0 0 0 0 0 0 0 0 0 0 0 0 0 0 0 0 0 0 0 0 0 0 0 0 0 0 0 0 0 0 0 0 0 0 0 0 0 0 0 0 0 0 0 0
33 12 4 0 0 0 0 0 0 0 0 3 0 0 0 0 0 0 0 0 0 0 0 0 0 0 0 0 0 0 0 0 0 0 0 0 0 0 0 0 0 0 0 0 0 0 0 0 0 0 0 0 0 0 0 0 0 0 0 0 0 0 0
25 4 0 0 0 0 1 0 0 0 0 5 0 0 0 0 0 0 0 0 0 0 0 0 0 0 0 0 0 0 0 0 0 0 0 0 0 0 0 0 0 0 0 0 0 0 0 0 0 0 0 0 0 0 0 0 0 0 0 0 0 0 0
53 91 28 0 0 0 0 20 53 3 4 7 0 0 0 0 0 0 0 0 0 0 0 0 0 0 0 0 0 0 0 0 0 0 0 0 0 0 0 0 0 0 0 0 0 0 0 0 0 0 0 0 0 0 0 0 0 0 0 0 0 0 0
52 104 48 11 0 0 0 103 66 32 1 5 0 0 0 0 0 0 0 0 0 0 0 0 0 0 0 0 0 0 0 0 0 0 0 0 0 0 0 0 0 0 0 0 0 0 0 0 0 0 0 0 0 0 0 0 0 0 0 0 0 0 0
154 46 19 0 0 0 67 168 88 45 121 9 1 0 0 0 0 0 0 0 0 0 0 0 0 0 0 0 0 0 0 0 0 0 0 0 0 0 0 0 0 0 0 0 0 0 0 0 0 0 0 0 0 0 0 0 0 0 0 0 0 0 0
110 66 11 0 187 94 202 250 159 66 92 207 0 0 0 0 0 0 0 0 0 0 0 0 0 0 0 0 0 0 0 0 0 0 0 0 0 0 0 0 0 0 0 0 0 0 0 0 0 0 0 0 0 0 0 0 0 0 0 0 0 0 0
132 0 0 76 0 261 294 283 198 96 164 270 196 0 0 0 0 0 0 0 0 0 0 0 0 0 0 0 0 0 0 0 0 155 0 0 0 0 0 0 3 276 56 0 0 0 0 0 0 0 0 0 0 0 0 0 0 0 0 0 0 0 0
240 0 0 0 0 207 297 284 312 434 341 246 168 0 6 4 0 1 1 3 6 0 0 0 0 0 0 0 0 203 314 0 0 310 341 355 335 37 0 0 2 0 0 0 0 0 0 0 0 0 0 0 0 0 0 0 0 0 0 0 0 0 0
445 474 337 35 132 284 299 325 336 397 403 452 424 335 0 6 16 15 23 34 33 15 0 0 0 0 0 0 0 177 383 399 410 409 398 391 394 125 0 0 0 0 0 0 0 0 0 0 0 0 0 0 0 0 0 0 0 0 0 0 0 0 0
429 487 520 483 454 442 375 351 338 433 438 563 547 490 452 413 104 23 166 18 0 0 0 0 0 0 0 0 0 0 0 31 282 21 22 258 370 414 384 22 0 0 327 84 0 0 0 250 246 259 201 12 0 0 0 0 0 0 0 0 0 0 0
199 177 183 178 252 346 444 447 395 426 466 506 520 603 571 594 576 557 449 327 201 0 0 0 0 0 0 0 0 0 368 414 446 493 531 548 544 542 530 466 211 0 0 0 0 0 0 260 306 347 335 219 0 0 0 0 0 0 0 0 0 0 0
0 0 90 107 94 25 0 154 210 185 0 221 279 343 500 499 504 494 503 496 469 459 79 0 0 0 112 254 246 0 0 0 0 215 430 428 414 0 0 364 395 0 0 0 0 0 0 248 286 306 408 345 37 0 0 0 13 0 0 0 0 0 0
13 1 0 1 6 5 101 146 173 0 0 0 272 320 292 403 288 383 446 432 434 509 600 587 612 576 527 485 409 290 263 0 0 0 0 0 163 306 317 227 0 0 0 0 0 0 0 210 64 20 417 356 248 0 0 132 115 98 0 0 0 0 0
12 1 4 2 11 3 0 0 0 250 156 339 365 409 237 231 404 451 424 452 504 523 582 627 735 823 835 753 608 502 419 204 0 0 0 0 0 256 145 0 0 0 0 0 0 0 39 244 36 18 19 0 176 224 207 183 156 130 120 55 0 0 0
0 0 0 0 0 0 0 189 32 0 35 40 0 0 0 0 0 0 0 69 351 335 435 437 504 721 907 885 810 732 665 577 466 352 247 0 134 285 198 0 0 0 0 0 0 0 272 313 18 16 14 9 0 239 250 194 24 20 9 0 0 0 0
0 0 0 0 0 0 0 0 0 0 0 0 0 0 0 0 0 0 0 0 0 0 0 45 190 461 716 852 850 811 732 636 552 479 406 362 322 267 220 0 0 0 0 0 0 154 362 418 301 66 13 0 0 0 0 0 0 0 0 0 0 0 0
0 0 0 0 0 0 0 0 0 0 0 0 0 0 0 0 0 0 0 0 0 0 0 0 293 367 561 732 795 765 715 639 586 537 479 397 307 256 78 0 0 0 0 0 1 15 417 461 84 57 41 37 7 0 0 0 0 0 0 0 0 0 0
0 0 0 0 0 0 0 0 0 0 0 0 0 0 0 0 0 0 0 0 0 0 0 0 0 225 363 535 667 693 692 644 611 579 521 406 311 311 0 0 0 0 0 0 10 337 502 507 377 269 226 102 0 0 0 0 0 0 0 0 0 0 0
0 0 0 0 0 0 0 0 0 0 0 0 0 0 0 0 0 0 0 0 0 0 0 0 0 65 261 425 568 636 596 577 547 497 433 361 384 396 221 0 0 0 0 0 17 457 597 418 193 166 224 79 0 0 0 0 0 0 0 0 0 0 0
0 0 0 0 0 0 0 0 0 0 0 0 0 0 0 0 0 0 0 0 0 0 0 0 0 0 94 342 551 600 565 481 379 296 240 370 446 445 244 0 0 0 136 224 304 475 604 490 290 189 154 68 0 0 0 0 0 0 0 0 1 3 6
0 0 0 0 0 0 0 0 0 0 0 0 0 0 0 0 0 0 0 0 0 0 0 0 0 0 0 0 290 379 455 425 216 0 317 414 449 322 231 202 176 188 257 382 519 642 691 622 391 211 129 91 10 0 0 0 0 0 0 3 10 16 17